Time,TemperatureF,DewpointF,PressureIn,WindDirection,WindDirectionDegrees,WindSpeedMPH,WindSpeedGustMPH,Humidity,HourlyPrecipIn,Conditions,Clouds,dailyrainin,SolarRadiationWatts/m^2,SoftwareType,DateUTC
2013-06-16 00:02:00,84.0,23.9,29.80,SW,231,3.0,-999.0,11,0.00,,,0.00,1,WeatherHawk,2013-06-16 07:02:00,
2013-06-16 00:04:00,84.0,23.9,29.80,WSW,249,2.0,0.0,11,0.00,,,0.00,0,WeatherHawk,2013-06-16 07:04:00,
2013-06-16 00:05:00,83.8,23.7,29.80,WSW,250,1.0,0.0,11,0.00,,,0.00,0,WeatherHawk,2013-06-16 07:05:00,
2013-06-16 00:07:00,83.8,23.7,29.80,WSW,245,2.0,0.0,11,0.00,,,0.00,0,WeatherHawk,2013-06-16 07:07:00,
2013-06-16 00:12:00,83.8,23.7,29.79,WSW,253,2.0,3.0,11,0.00,,,0.00,1,WeatherHawk,2013-06-16 07:12:00,
2013-06-16 00:13:00,83.8,23.7,29.79,WSW,246,2.0,3.0,11,0.00,,,0.00,0,WeatherHawk,2013-06-16 07:13:00,
2013-06-16 00:15:00,84.0,23.9,29.79,West,264,3.0,3.0,11,0.00,,,0.00,1,WeatherHawk,2013-06-16 07:15:00,
2013-06-16 00:17:00,84.0,23.9,29.79,West,264,3.0,-999.0,11,0.00,,,0.00,0,WeatherHawk,2013-06-16 07:17:00,
2013-06-16 00:20:00,84.0,23.9,29.79,WSW,254,3.0,3.0,11,0.00,,,0.00,0,WeatherHawk,2013-06-16 07:20:00,
2013-06-16 00:21:00,84.0,23.9,29.79,WSW,248,3.0,3.0,11,0.00,,,0.00,0,WeatherHawk,2013-06-16 07:21:00,
2013-06-16 00:22:00,84.0,23.9,29.79,WSW,248,3.0,3.0,11,0.00,,,0.00,0,WeatherHawk,2013-06-16 07:22:00,
2013-06-16 00:25:00,84.0,23.9,29.79,WSW,249,2.0,3.0,11,0.00,,,0.00,0,WeatherHawk,2013-06-16 07:25:00,
2013-06-16 00:27:00,84.0,23.9,29.79,West,260,2.0,3.0,11,0.00,,,0.00,0,WeatherHawk,2013-06-16 07:27:00,
2013-06-16 00:28:00,84.0,23.9,29.79,West,262,2.0,0.0,11,0.00,,,0.00,0,WeatherHawk,2013-06-16 07:28:00,
2013-06-16 00:31:00,84.0,23.9,29.79,WSW,258,2.0,0.0,11,0.00,,,0.00,0,WeatherHawk,2013-06-16 07:31:00,
2013-06-16 00:33:00,83.8,23.7,29.79,SW,230,1.0,0.0,11,0.00,,,0.00,0,WeatherHawk,2013-06-16 07:33:00,
2013-06-16 00:36:00,83.7,23.6,29.79,SSW,210,1.0,0.0,11,0.00,,,0.00,0,WeatherHawk,2013-06-16 07:36:00,
2013-06-16 00:37:00,83.7,23.6,29.79,SSW,210,1.0,0.0,11,0.00,,,0.00,0,WeatherHawk,2013-06-16 07:37:00,
2013-06-16 00:39:00,83.3,25.4,29.79,SE,124,2.0,0.0,12,0.00,,,0.00,0,WeatherHawk,2013-06-16 07:39:00,
2013-06-16 00:42:00,82.0,28.1,29.79,ESE,110,2.0,2.0,14,0.00,,,0.00,0,WeatherHawk,2013-06-16 07:42:00,
2013-06-16 00:43:00,80.8,27.1,29.79,SE,146,3.0,3.0,14,0.00,,,0.00,1,WeatherHawk,2013-06-16 07:43:00,
2013-06-16 00:46:00,80.2,26.7,29.79,SE,133,3.0,3.0,14,0.00,,,0.00,0,WeatherHawk,2013-06-16 07:46:00,
2013-06-16 00:47:00,80.2,28.4,29.79,SE,126,3.0,3.0,15,0.00,,,0.00,0,WeatherHawk,2013-06-16 07:47:00,
2013-06-16 00:51:00,80.1,28.2,29.79,ESE,103,3.0,3.0,15,0.00,,,0.00,0,WeatherHawk,2013-06-16 07:51:00,
2013-06-16 00:52:00,79.9,29.7,29.79,East,85,2.0,3.0,16,0.00,,,0.00,1,WeatherHawk,2013-06-16 07:52:00,
2013-06-16 00:53:00,79.7,31.0,29.79,East,93,2.0,3.0,17,0.00,,,0.00,0,WeatherHawk,2013-06-16 07:53:00,
2013-06-16 00:54:00,79.9,29.7,29.79,ESE,102,2.0,3.0,16,0.00,,,0.00,0,WeatherHawk,2013-06-16 07:54:00,
2013-06-16 00:57:00,79.9,33.9,29.79,East,100,3.0,-999.0,19,0.00,,,0.00,0,WeatherHawk,2013-06-16 07:57:00,
2013-06-16 00:59:00,79.2,33.3,29.79,ESE,121,3.0,0.0,19,0.00,,,0.00,0,WeatherHawk,2013-06-16 07:59:00,
2013-06-16 01:02:00,78.8,33.0,29.79,SE,125,3.0,0.0,19,0.00,,,0.00,1,WeatherHawk,2013-06-16 08:02:00,
2013-06-16 01:04:00,78.8,31.7,29.79,SE,128,4.0,0.0,18,0.00,,,0.00,0,WeatherHawk,2013-06-16 08:04:00,
2013-06-16 01:06:00,79.0,33.2,29.79,SE,135,4.0,0.0,19,0.00,,,0.00,0,WeatherHawk,2013-06-16 08:06:00,
2013-06-16 01:07:00,79.0,33.2,29.79,SE,135,4.0,0.0,19,0.00,,,0.00,0,WeatherHawk,2013-06-16 08:07:00,
2013-06-16 01:10:00,78.6,32.9,29.79,SE,136,2.0,4.0,19,0.00,,,0.00,0,WeatherHawk,2013-06-16 08:10:00,
2013-06-16 01:12:00,78.4,32.7,29.79,SE,129,2.0,4.0,19,0.00,,,0.00,0,WeatherHawk,2013-06-16 08:12:00,
2013-06-16 01:15:00,78.4,34.0,29.79,ESE,113,3.0,4.0,20,0.00,,,0.00,0,WeatherHawk,2013-06-16 08:15:00,
2013-06-16 01:17:00,78.3,33.9,29.79,ESE,123,2.0,4.0,20,0.00,,,0.00,0,WeatherHawk,2013-06-16 08:17:00,
2013-06-16 01:20:00,78.4,34.0,29.79,SE,134,3.0,0.0,20,0.00,,,0.00,0,WeatherHawk,2013-06-16 08:20:00,
2013-06-16 01:22:00,78.4,34.0,29.79,SE,136,3.0,0.0,20,0.00,,,0.00,0,WeatherHawk,2013-06-16 08:22:00,
2013-06-16 01:23:00,78.4,35.3,29.79,SE,125,3.0,0.0,21,0.00,,,0.00,0,WeatherHawk,2013-06-16 08:23:00,
2013-06-16 01:27:00,78.4,34.0,29.79,SE,133,2.0,0.0,20,0.00,,,0.00,0,WeatherHawk,2013-06-16 08:27:00,
2013-06-16 01:29:00,78.4,32.7,29.79,SE,138,3.0,4.0,19,0.00,,,0.00,1,WeatherHawk,2013-06-16 08:29:00,
2013-06-16 01:32:00,78.4,32.7,29.79,SSE,156,2.0,4.0,19,0.00,,,0.00,0,WeatherHawk,2013-06-16 08:32:00,
2013-06-16 01:33:00,78.6,32.9,29.79,SSE,149,3.0,4.0,19,0.00,,,0.00,0,WeatherHawk,2013-06-16 08:33:00,
2013-06-16 01:35:00,78.6,32.9,29.79,SSE,150,4.0,4.0,19,0.00,,,0.00,0,WeatherHawk,2013-06-16 08:35:00,
2013-06-16 01:37:00,79.0,31.8,29.79,SE,142,4.0,-999.0,18,0.00,,,0.00,0,WeatherHawk,2013-06-16 08:37:00,
2013-06-16 01:39:00,79.2,34.6,29.79,SSE,168,4.0,4.0,20,0.00,,,0.00,0,WeatherHawk,2013-06-16 08:39:00,
2013-06-16 01:42:00,79.0,34.5,29.79,SSE,158,4.0,-999.0,20,0.00,,,0.00,0,WeatherHawk,2013-06-16 08:42:00,
2013-06-16 01:45:00,78.4,34.0,29.79,SSE,152,4.0,4.0,20,0.00,,,0.00,0,WeatherHawk,2013-06-16 08:45:00,
2013-06-16 01:47:00,78.3,33.9,29.79,SSE,159,4.0,-999.0,20,0.00,,,0.00,0,WeatherHawk,2013-06-16 08:47:00,
2013-06-16 01:50:00,77.7,34.7,29.79,SE,140,4.0,4.0,21,0.00,,,0.00,0,WeatherHawk,2013-06-16 08:50:00,
2013-06-16 01:51:00,77.7,33.4,29.79,SE,140,4.0,4.0,20,0.00,,,0.00,0,WeatherHawk,2013-06-16 08:51:00,
2013-06-16 01:52:00,77.7,33.4,29.79,SE,140,4.0,4.0,20,0.00,,,0.00,0,WeatherHawk,2013-06-16 08:52:00,
2013-06-16 01:53:00,77.9,36.0,29.79,SSE,157,3.0,4.0,22,0.00,,,0.00,0,WeatherHawk,2013-06-16 08:53:00,
2013-06-16 01:56:00,77.5,34.5,29.79,SE,138,4.0,4.0,21,0.00,,,0.00,0,WeatherHawk,2013-06-16 08:56:00,
2013-06-16 01:57:00,77.5,34.5,29.79,SE,138,4.0,4.0,21,0.00,,,0.00,0,WeatherHawk,2013-06-16 08:57:00,
2013-06-16 02:02:00,77.5,33.3,29.79,SSE,151,4.0,4.0,20,0.00,,,0.00,0,WeatherHawk,2013-06-16 09:02:00,
2013-06-16 02:06:00,77.9,32.3,29.78,SSE,161,4.0,4.0,19,0.00,,,0.00,0,WeatherHawk,2013-06-16 09:06:00,
2013-06-16 02:07:00,77.9,32.3,29.78,SSE,161,4.0,4.0,19,0.00,,,0.00,0,WeatherHawk,2013-06-16 09:07:00,
2013-06-16 02:09:00,77.9,32.3,29.78,SSE,162,4.0,0.0,19,0.00,,,0.00,0,WeatherHawk,2013-06-16 09:09:00,
2013-06-16 02:11:00,78.1,32.5,29.78,SSE,164,4.0,0.0,19,0.00,,,0.00,0,WeatherHawk,2013-06-16 09:11:00,
2013-06-16 02:12:00,78.1,32.5,29.78,SSE,164,4.0,-999.0,19,0.00,,,0.00,0,WeatherHawk,2013-06-16 09:12:00,
2013-06-16 02:14:00,77.7,33.4,29.78,SSE,158,4.0,0.0,20,0.00,,,0.00,0,WeatherHawk,2013-06-16 09:14:00,
2013-06-16 02:15:00,77.7,33.4,29.78,SSE,158,4.0,0.0,20,0.00,,,0.00,0,WeatherHawk,2013-06-16 09:15:00,
2013-06-16 02:17:00,77.2,34.2,29.78,SSE,152,4.0,0.0,21,0.00,,,0.00,0,WeatherHawk,2013-06-16 09:17:00,
2013-06-16 02:22:00,76.8,33.9,29.78,SSE,153,4.0,4.0,21,0.00,,,0.00,0,WeatherHawk,2013-06-16 09:22:00,
2013-06-16 02:24:00,76.6,32.5,29.78,SSE,154,5.0,5.0,20,0.00,,,0.00,0,WeatherHawk,2013-06-16 09:24:00,
2013-06-16 02:26:00,76.8,33.9,29.78,SSE,147,4.0,4.0,21,0.00,,,0.00,0,WeatherHawk,2013-06-16 09:26:00,
2013-06-16 02:27:00,76.8,33.9,29.78,SSE,148,4.0,0.0,21,0.00,,,0.00,0,WeatherHawk,2013-06-16 09:27:00,
2013-06-16 02:29:00,76.6,32.5,29.78,SE,140,4.0,5.0,20,0.00,,,0.00,0,WeatherHawk,2013-06-16 09:29:00,
2013-06-16 02:30:00,76.6,34.9,29.78,SSE,148,3.0,5.0,22,0.00,,,0.00,0,WeatherHawk,2013-06-16 09:30:00,
2013-06-16 02:32:00,76.5,33.6,29.78,SE,146,4.0,5.0,21,0.00,,,0.00,0,WeatherHawk,2013-06-16 09:32:00,
2013-06-16 02:37:00,76.6,34.9,29.78,SSE,163,3.0,5.0,22,0.00,,,0.00,0,WeatherHawk,2013-06-16 09:37:00,
2013-06-16 02:38:00,76.6,33.8,29.78,SSE,150,3.0,0.0,21,0.00,,,0.00,0,WeatherHawk,2013-06-16 09:38:00,
2013-06-16 02:42:00,77.0,34.1,29.78,SSE,149,3.0,0.0,21,0.00,,,0.00,0,WeatherHawk,2013-06-16 09:42:00,
2013-06-16 02:43:00,76.6,33.8,29.78,SSE,160,4.0,0.0,21,0.00,,,0.00,0,WeatherHawk,2013-06-16 09:43:00,
2013-06-16 02:46:00,76.1,35.6,29.78,SE,146,3.0,0.0,23,0.00,,,0.00,0,WeatherHawk,2013-06-16 09:46:00,
2013-06-16 02:47:00,75.9,35.4,29.78,SE,141,4.0,0.0,23,0.00,,,0.00,0,WeatherHawk,2013-06-16 09:47:00,
2013-06-16 02:49:00,75.6,35.1,29.78,SE,134,4.0,5.0,23,0.00,,,0.00,0,WeatherHawk,2013-06-16 09:49:00,
2013-06-16 02:52:00,75.6,35.1,29.78,SE,139,4.0,-999.0,23,0.00,,,0.00,0,WeatherHawk,2013-06-16 09:52:00,
2013-06-16 02:53:00,75.4,36.1,29.78,SE,138,4.0,5.0,24,0.00,,,0.00,0,WeatherHawk,2013-06-16 09:53:00,
2013-06-16 02:54:00,75.4,36.1,29.78,SE,131,4.0,5.0,24,0.00,,,0.00,0,WeatherHawk,2013-06-16 09:54:00,
2013-06-16 02:57:00,75.4,36.1,29.78,SE,129,3.0,-999.0,24,0.00,,,0.00,0,WeatherHawk,2013-06-16 09:57:00,
2013-06-16 02:58:00,75.2,35.9,29.78,ESE,120,2.0,4.0,24,0.00,,,0.00,0,WeatherHawk,2013-06-16 09:58:00,
2013-06-16 02:59:00,75.2,35.9,29.78,ESE,123,3.0,4.0,24,0.00,,,0.00,0,WeatherHawk,2013-06-16 09:59:00,
2013-06-16 03:03:00,75.2,35.9,29.78,ESE,119,4.0,4.0,24,0.00,,,0.00,0,WeatherHawk,2013-06-16 10:03:00,
2013-06-16 03:04:00,75.2,35.9,29.78,ESE,110,3.0,4.0,24,0.00,,,0.00,0,WeatherHawk,2013-06-16 10:04:00,
2013-06-16 03:06:00,75.4,35.0,29.78,East,91,2.0,4.0,23,0.00,,,0.00,0,WeatherHawk,2013-06-16 10:06:00,
2013-06-16 03:07:00,75.6,34.0,29.78,ESE,103,3.0,4.0,22,0.00,,,0.00,0,WeatherHawk,2013-06-16 10:07:00,
2013-06-16 03:08:00,75.6,36.2,29.78,East,89,2.0,4.0,24,0.00,,,0.00,0,WeatherHawk,2013-06-16 10:08:00,
2013-06-16 03:09:00,75.4,36.1,29.78,ENE,73,2.0,4.0,24,0.00,,,0.00,0,WeatherHawk,2013-06-16 10:09:00,
2013-06-16 03:11:00,74.8,35.6,29.78,SE,136,3.0,4.0,24,0.00,,,0.00,0,WeatherHawk,2013-06-16 10:11:00,
2013-06-16 03:14:00,75.2,35.9,29.78,ESE,113,2.0,4.0,24,0.00,,,0.00,0,WeatherHawk,2013-06-16 10:14:00,
2013-06-16 03:15:00,75.4,36.1,29.78,East,101,2.0,4.0,24,0.00,,,0.00,0,WeatherHawk,2013-06-16 10:15:00,
2013-06-16 03:16:00,75.4,33.9,29.78,SE,138,4.0,4.0,22,0.00,,,0.00,0,WeatherHawk,2013-06-16 10:16:00,
2013-06-16 03:17:00,75.6,35.1,29.78,SE,133,4.0,4.0,23,0.00,,,0.00,0,WeatherHawk,2013-06-16 10:17:00,
2013-06-16 03:18:00,75.6,35.1,29.78,SE,133,4.0,-999.0,23,0.00,,,0.00,0,WeatherHawk,2013-06-16 10:18:00,
2013-06-16 03:23:00,76.1,33.3,29.79,ESE,117,2.0,4.0,21,0.00,,,0.00,0,WeatherHawk,2013-06-16 10:23:00,
2013-06-16 03:25:00,76.5,33.6,29.79,SE,130,2.0,4.0,21,0.00,,,0.00,0,WeatherHawk,2013-06-16 10:25:00,
2013-06-16 03:28:00,76.6,37.1,29.79,East,96,3.0,-999.0,24,0.00,,,0.00,0,WeatherHawk,2013-06-16 10:28:00,
2013-06-16 03:31:00,76.1,34.5,29.79,South,184,3.0,4.0,22,0.00,,,0.00,0,WeatherHawk,2013-06-16 10:31:00,
2013-06-16 03:33:00,76.1,34.5,29.79,SSE,158,3.0,4.0,22,0.00,,,0.00,0,WeatherHawk,2013-06-16 10:33:00,
2013-06-16 03:34:00,76.5,34.8,29.79,SSE,161,4.0,4.0,22,0.00,,,0.00,0,WeatherHawk,2013-06-16 10:34:00,
2013-06-16 03:38:00,75.9,35.4,29.79,SSE,152,4.0,4.0,23,0.00,,,0.00,0,WeatherHawk,2013-06-16 10:38:00,
2013-06-16 03:39:00,76.1,36.7,29.79,SSE,155,3.0,4.0,24,0.00,,,0.00,0,WeatherHawk,2013-06-16 10:39:00,
2013-06-16 03:41:00,76.3,36.8,29.79,SSE,156,4.0,4.0,24,0.00,,,0.00,0,WeatherHawk,2013-06-16 10:41:00,
2013-06-16 03:42:00,76.3,35.7,29.79,SSE,154,4.0,4.0,23,0.00,,,0.00,1,WeatherHawk,2013-06-16 10:42:00,
2013-06-16 03:44:00,76.3,33.5,29.79,SSE,149,3.0,4.0,21,0.00,,,0.00,0,WeatherHawk,2013-06-16 10:44:00,
2013-06-16 03:47:00,75.9,35.4,29.79,SSE,157,4.0,4.0,23,0.00,,,0.00,0,WeatherHawk,2013-06-16 10:47:00,
2013-06-16 03:48:00,75.9,35.4,29.79,SSE,157,4.0,4.0,23,0.00,,,0.00,0,WeatherHawk,2013-06-16 10:48:00,
2013-06-16 03:50:00,76.3,34.6,29.79,SSE,150,4.0,4.0,22,0.00,,,0.00,0,WeatherHawk,2013-06-16 10:50:00,
2013-06-16 03:52:00,77.0,36.3,29.79,SSE,163,4.0,4.0,23,0.00,,,0.00,0,WeatherHawk,2013-06-16 10:52:00,
2013-06-16 03:53:00,77.0,36.3,29.79,SSE,163,4.0,4.0,23,0.00,,,0.00,0,WeatherHawk,2013-06-16 10:53:00,
2013-06-16 03:58:00,77.9,34.8,29.79,South,173,2.0,4.0,21,0.00,,,0.00,0,WeatherHawk,2013-06-16 10:58:00,
2013-06-16 04:02:00,78.6,31.6,29.79,SSW,192,2.0,4.0,18,0.00,,,0.00,0,WeatherHawk,2013-06-16 11:02:00,
2013-06-16 04:03:00,78.6,31.6,29.79,SSW,192,2.0,4.0,18,0.00,,,0.00,0,WeatherHawk,2013-06-16 11:03:00,
2013-06-16 04:04:00,78.3,33.9,29.79,South,183,2.0,4.0,20,0.00,,,0.00,0,WeatherHawk,2013-06-16 11:04:00,
2013-06-16 04:08:00,77.9,34.8,29.80,South,190,1.0,4.0,21,0.00,,,0.00,0,WeatherHawk,2013-06-16 11:08:00,
2013-06-16 04:09:00,77.9,31.0,29.80,SW,222,2.0,3.0,18,0.00,,,0.00,0,WeatherHawk,2013-06-16 11:09:00,
2013-06-16 04:10:00,78.1,31.1,29.80,SW,225,2.0,3.0,18,0.00,,,0.00,0,WeatherHawk,2013-06-16 11:10:00,
2013-06-16 04:13:00,78.3,33.9,29.80,SSW,211,2.0,-999.0,20,0.00,,,0.00,0,WeatherHawk,2013-06-16 11:13:00,
2013-06-16 04:15:00,78.6,32.9,29.80,WSW,238,1.0,3.0,19,0.00,,,0.00,0,WeatherHawk,2013-06-16 11:15:00,
2013-06-16 04:18:00,78.6,31.6,29.80,SW,217,1.0,3.0,18,0.00,,,0.00,0,WeatherHawk,2013-06-16 11:18:00,
2013-06-16 04:21:00,78.6,30.1,29.80,West,259,2.0,2.0,17,0.00,,,0.00,0,WeatherHawk,2013-06-16 11:21:00,
2013-06-16 04:23:00,78.6,31.6,29.80,West,259,2.0,2.0,18,0.00,,,0.00,0,WeatherHawk,2013-06-16 11:23:00,
2013-06-16 04:28:00,78.8,30.3,29.80,West,261,2.0,2.0,17,0.00,,,0.00,0,WeatherHawk,2013-06-16 11:28:00,
2013-06-16 04:29:00,79.0,30.4,29.80,WNW,298,2.0,3.0,17,0.00,,,0.00,0,WeatherHawk,2013-06-16 11:29:00,
2013-06-16 04:30:00,79.2,30.6,29.80,WNW,293,2.0,3.0,17,0.00,,,0.00,1,WeatherHawk,2013-06-16 11:30:00,
2013-06-16 04:33:00,79.2,30.6,29.80,West,276,2.0,3.0,17,0.00,,,0.00,0,WeatherHawk,2013-06-16 11:33:00,
2013-06-16 04:34:00,79.2,30.6,29.80,West,272,1.0,3.0,17,0.00,,,0.00,0,WeatherHawk,2013-06-16 11:34:00,
2013-06-16 04:35:00,79.2,30.6,29.80,WSW,255,2.0,3.0,17,0.00,,,0.00,0,WeatherHawk,2013-06-16 11:35:00,
2013-06-16 04:37:00,79.2,30.6,29.80,West,268,2.0,3.0,17,0.00,,,0.00,0,WeatherHawk,2013-06-16 11:37:00,
2013-06-16 04:41:00,79.2,30.6,29.80,West,259,1.0,3.0,17,0.00,,,0.00,0,WeatherHawk,2013-06-16 11:41:00,
2013-06-16 04:42:00,79.2,30.6,29.80,WSW,242,1.0,3.0,17,0.00,,,0.00,0,WeatherHawk,2013-06-16 11:42:00,
2013-06-16 04:43:00,79.2,30.6,29.80,WSW,242,1.0,3.0,17,0.00,,,0.00,0,WeatherHawk,2013-06-16 11:43:00,
2013-06-16 04:45:00,78.8,30.3,29.80,SW,231,2.0,3.0,17,0.00,,,0.00,0,WeatherHawk,2013-06-16 11:45:00,
2013-06-16 04:47:00,78.8,30.3,29.80,SSW,212,1.0,3.0,17,0.00,,,0.00,0,WeatherHawk,2013-06-16 11:47:00,
2013-06-16 04:48:00,78.8,30.3,29.80,SSW,212,1.0,3.0,17,0.00,,,0.00,0,WeatherHawk,2013-06-16 11:48:00,
2013-06-16 04:52:00,78.4,31.4,29.80,SSW,210,2.0,2.0,18,0.00,,,0.00,1,WeatherHawk,2013-06-16 11:52:00,
2013-06-16 04:53:00,78.4,31.4,29.80,SSW,204,2.0,2.0,18,0.00,,,0.00,0,WeatherHawk,2013-06-16 11:53:00,
2013-06-16 04:55:00,78.4,31.4,29.80,SW,216,2.0,2.0,18,0.00,,,0.00,0,WeatherHawk,2013-06-16 11:55:00,
2013-06-16 04:57:00,78.4,31.4,29.80,SW,215,2.0,2.0,18,0.00,,,0.00,0,WeatherHawk,2013-06-16 11:57:00,
2013-06-16 04:58:00,78.4,31.4,29.80,SW,224,2.0,2.0,18,0.00,,,0.00,0,WeatherHawk,2013-06-16 11:58:00,
2013-06-16 05:00:00,78.3,31.3,29.80,SW,223,2.0,2.0,18,0.00,,,0.00,0,WeatherHawk,2013-06-16 12:00:00,
2013-06-16 05:01:00,78.4,31.4,29.80,SW,230,2.0,2.0,18,0.00,,,0.00,0,WeatherHawk,2013-06-16 12:01:00,
2013-06-16 05:03:00,78.4,31.4,29.81,SW,227,2.0,2.0,18,0.00,,,0.00,0,WeatherHawk,2013-06-16 12:03:00,
2013-06-16 05:05:00,78.4,31.4,29.81,SW,227,3.0,3.0,18,0.00,,,0.00,1,WeatherHawk,2013-06-16 12:05:00,
2013-06-16 05:07:00,78.3,31.3,29.81,SW,229,4.0,4.0,18,0.00,,,0.00,0,WeatherHawk,2013-06-16 12:07:00,
2013-06-16 05:08:00,78.3,31.3,29.81,SW,230,3.0,4.0,18,0.00,,,0.00,0,WeatherHawk,2013-06-16 12:08:00,
2013-06-16 05:09:00,78.3,31.3,29.81,SW,235,4.0,4.0,18,0.00,,,0.00,0,WeatherHawk,2013-06-16 12:09:00,
2013-06-16 05:12:00,78.3,31.3,29.81,WSW,243,4.0,4.0,18,0.00,,,0.00,0,WeatherHawk,2013-06-16 12:12:00,
2013-06-16 05:17:00,78.3,31.3,29.81,WSW,252,4.0,4.0,18,0.00,,,0.00,0,WeatherHawk,2013-06-16 12:17:00,
2013-06-16 05:18:00,78.3,31.3,29.81,WSW,248,4.0,0.0,18,0.00,,,0.00,1,WeatherHawk,2013-06-16 12:18:00,
2013-06-16 05:20:00,78.1,31.1,29.81,WSW,241,3.0,4.0,18,0.00,,,0.00,0,WeatherHawk,2013-06-16 12:20:00,
2013-06-16 05:24:00,77.7,30.8,29.81,SW,223,3.0,4.0,18,0.00,,,0.00,3,WeatherHawk,2013-06-16 12:24:00,
2013-06-16 05:25:00,77.7,30.8,29.81,SW,227,4.0,4.0,18,0.00,,,0.00,3,WeatherHawk,2013-06-16 12:25:00,
2013-06-16 05:26:00,77.7,30.8,29.81,SW,233,3.0,4.0,18,0.00,,,0.00,3,WeatherHawk,2013-06-16 12:26:00,
2013-06-16 05:32:00,77.7,30.8,29.81,WSW,246,4.0,4.0,18,0.00,,,0.00,5,WeatherHawk,2013-06-16 12:32:00,
2013-06-16 05:33:00,77.7,30.8,29.81,WSW,245,4.0,4.0,18,0.00,,,0.00,7,WeatherHawk,2013-06-16 12:33:00,
2013-06-16 05:36:00,77.7,30.8,29.81,WSW,242,4.0,4.0,18,0.00,,,0.00,9,WeatherHawk,2013-06-16 12:36:00,
2013-06-16 05:37:00,77.5,30.7,29.81,WSW,243,4.0,4.0,18,0.00,,,0.00,11,WeatherHawk,2013-06-16 12:37:00,
2013-06-16 05:38:00,77.5,32.0,29.81,WSW,246,3.0,5.0,19,0.00,,,0.00,13,WeatherHawk,2013-06-16 12:38:00,
2013-06-16 05:41:00,77.4,31.9,29.81,WSW,249,3.0,5.0,19,0.00,,,0.00,20,WeatherHawk,2013-06-16 12:41:00,
2013-06-16 05:42:00,77.2,31.7,29.81,WSW,240,3.0,-999.0,19,0.00,,,0.00,22,WeatherHawk,2013-06-16 12:42:00,
2013-06-16 05:45:00,77.2,31.7,29.82,SW,225,4.0,5.0,19,0.00,,,0.00,28,WeatherHawk,2013-06-16 12:45:00,
2013-06-16 05:47:00,76.8,31.4,29.82,SSW,210,3.0,5.0,19,0.00,,,0.00,32,WeatherHawk,2013-06-16 12:47:00,
2013-06-16 05:48:00,76.8,32.7,29.82,SSW,209,3.0,4.0,20,0.00,,,0.00,35,WeatherHawk,2013-06-16 12:48:00,
2013-06-16 05:49:00,76.6,32.5,29.82,SW,220,3.0,4.0,20,0.00,,,0.00,35,WeatherHawk,2013-06-16 12:49:00,
2013-06-16 05:51:00,76.5,32.4,29.82,SW,225,3.0,4.0,20,0.00,,,0.00,42,WeatherHawk,2013-06-16 12:51:00,
2013-06-16 05:54:00,76.3,32.3,29.82,SW,224,3.0,4.0,20,0.00,,,0.00,50,WeatherHawk,2013-06-16 12:54:00,
2013-06-16 05:55:00,76.3,32.3,29.82,SW,225,4.0,4.0,20,0.00,,,0.00,53,WeatherHawk,2013-06-16 12:55:00,
2013-06-16 05:56:00,76.3,32.3,29.82,SW,226,4.0,4.0,20,0.00,,,0.00,54,WeatherHawk,2013-06-16 12:56:00,
2013-06-16 05:57:00,76.3,32.3,29.82,SW,226,4.0,4.0,20,0.00,,,0.00,54,WeatherHawk,2013-06-16 12:57:00,
2013-06-16 05:58:00,76.3,32.3,29.82,SW,220,4.0,0.0,20,0.00,,,0.00,60,WeatherHawk,2013-06-16 12:58:00,
2013-06-16 06:01:00,76.1,32.1,29.82,SW,223,3.0,4.0,20,0.00,,,0.00,69,WeatherHawk,2013-06-16 13:01:00,
2013-06-16 06:02:00,76.1,32.1,29.82,SW,227,3.0,4.0,20,0.00,,,0.00,72,WeatherHawk,2013-06-16 13:02:00,
2013-06-16 06:06:00,75.9,32.0,29.82,SW,232,3.0,4.0,20,0.00,,,0.00,82,WeatherHawk,2013-06-16 13:06:00,
2013-06-16 06:07:00,75.9,32.0,29.82,SW,233,4.0,4.0,20,0.00,,,0.00,85,WeatherHawk,2013-06-16 13:07:00,
2013-06-16 06:08:00,75.9,32.0,29.82,SW,231,3.0,0.0,20,0.00,,,0.00,89,WeatherHawk,2013-06-16 13:08:00,
2013-06-16 06:11:00,75.9,30.7,29.82,WSW,238,4.0,4.0,19,0.00,,,0.00,97,WeatherHawk,2013-06-16 13:11:00,
2013-06-16 06:12:00,75.9,30.7,29.82,SW,234,4.0,4.0,19,0.00,,,0.00,99,WeatherHawk,2013-06-16 13:12:00,
2013-06-16 06:14:00,75.9,32.0,29.82,SW,230,4.0,4.0,20,0.00,,,0.00,107,WeatherHawk,2013-06-16 13:14:00,
2013-06-16 06:15:00,75.7,31.8,29.82,SW,228,4.0,4.0,20,0.00,,,0.00,108,WeatherHawk,2013-06-16 13:15:00,
2013-06-16 06:16:00,75.7,31.8,29.82,SW,231,4.0,4.0,20,0.00,,,0.00,114,WeatherHawk,2013-06-16 13:16:00,
2013-06-16 06:17:00,75.7,31.8,29.83,SW,235,4.0,-999.0,20,0.00,,,0.00,116,WeatherHawk,2013-06-16 13:17:00,
2013-06-16 06:20:00,75.7,33.0,29.83,SSW,207,3.0,4.0,21,0.00,,,0.00,124,WeatherHawk,2013-06-16 13:20:00,
2013-06-16 06:22:00,75.4,36.1,29.83,SW,217,4.0,4.0,24,0.00,,,0.00,132,WeatherHawk,2013-06-16 13:22:00,
2013-06-16 06:24:00,74.7,37.5,29.83,SW,226,4.0,4.0,26,0.00,,,0.00,137,WeatherHawk,2013-06-16 13:24:00,
2013-06-16 06:27:00,73.8,38.6,29.83,SW,220,3.0,4.0,28,0.00,,,0.00,147,WeatherHawk,2013-06-16 13:27:00,
2013-06-16 06:28:00,73.6,37.5,29.83,SW,218,3.0,0.0,27,0.00,,,0.00,150,WeatherHawk,2013-06-16 13:28:00,
2013-06-16 06:30:00,73.6,36.6,29.83,SW,229,3.0,5.0,26,0.00,,,0.00,158,WeatherHawk,2013-06-16 13:30:00,
2013-06-16 06:31:00,73.8,37.7,29.83,SW,219,3.0,5.0,27,0.00,,,0.00,161,WeatherHawk,2013-06-16 13:31:00,
2013-06-16 06:32:00,73.8,36.7,29.83,SW,226,3.0,5.0,26,0.00,,,0.00,163,WeatherHawk,2013-06-16 13:32:00,
2013-06-16 06:33:00,73.9,35.9,29.83,SW,219,4.0,5.0,25,0.00,,,0.00,166,WeatherHawk,2013-06-16 13:33:00,
2013-06-16 06:36:00,74.3,33.0,29.83,WSW,243,4.0,5.0,22,0.00,,,0.00,177,WeatherHawk,2013-06-16 13:36:00,
2013-06-16 06:37:00,74.3,33.0,29.83,WSW,243,4.0,-999.0,22,0.00,,,0.00,177,WeatherHawk,2013-06-16 13:37:00,
2013-06-16 06:39:00,74.7,32.1,29.83,SW,232,5.0,5.0,21,0.00,,,0.00,186,WeatherHawk,2013-06-16 13:39:00,
2013-06-16 06:40:00,74.8,32.3,29.83,WSW,240,4.0,4.0,21,0.00,,,0.00,191,WeatherHawk,2013-06-16 13:40:00,
2013-06-16 06:42:00,75.0,32.4,29.83,SW,234,5.0,5.0,21,0.00,,,0.00,196,WeatherHawk,2013-06-16 13:42:00,
2013-06-16 06:45:00,75.2,33.7,29.83,WSW,246,3.0,4.0,22,0.00,,,0.00,209,WeatherHawk,2013-06-16 13:45:00,
2013-06-16 06:46:00,75.2,33.7,29.83,WSW,250,3.0,4.0,22,0.00,,,0.00,211,WeatherHawk,2013-06-16 13:46:00,
2013-06-16 06:47:00,75.2,33.7,29.83,WSW,257,4.0,4.0,22,0.00,,,0.00,216,WeatherHawk,2013-06-16 13:47:00,
2013-06-16 06:51:00,75.2,33.7,29.84,SW,227,4.0,6.0,22,0.00,,,0.00,229,WeatherHawk,2013-06-16 13:51:00,
2013-06-16 06:52:00,75.2,33.7,29.84,SW,217,4.0,6.0,22,0.00,,,0.00,233,WeatherHawk,2013-06-16 13:52:00,
2013-06-16 06:53:00,75.2,33.7,29.84,SW,221,4.0,6.0,22,0.00,,,0.00,234,WeatherHawk,2013-06-16 13:53:00,
2013-06-16 06:55:00,75.4,33.9,29.84,SW,219,3.0,6.0,22,0.00,,,0.00,245,WeatherHawk,2013-06-16 13:55:00,
2013-06-16 06:57:00,75.4,33.9,29.84,SW,221,3.0,-999.0,22,0.00,,,0.00,247,WeatherHawk,2013-06-16 13:57:00,
2013-06-16 06:58:00,75.6,34.0,29.84,SW,224,4.0,4.0,22,0.00,,,0.00,256,WeatherHawk,2013-06-16 13:58:00,
2013-06-16 06:59:00,75.6,35.1,29.84,SW,230,4.0,4.0,23,0.00,,,0.00,258,WeatherHawk,2013-06-16 13:59:00,
2013-06-16 07:00:00,75.7,35.3,29.84,SW,226,4.0,4.0,23,0.00,,,0.00,262,WeatherHawk,2013-06-16 14:00:00,
2013-06-16 07:04:00,75.6,36.2,29.84,SW,215,3.0,4.0,24,0.00,,,0.00,280,WeatherHawk,2013-06-16 14:04:00,
2013-06-16 07:07:00,75.6,36.2,29.84,SW,222,4.0,4.0,24,0.00,,,0.00,288,WeatherHawk,2013-06-16 14:07:00,
2013-06-16 07:10:00,75.6,36.2,29.84,SW,227,3.0,5.0,24,0.00,,,0.00,300,WeatherHawk,2013-06-16 14:10:00,
2013-06-16 07:12:00,75.6,35.1,29.84,WSW,242,3.0,5.0,23,0.00,,,0.00,307,WeatherHawk,2013-06-16 14:12:00,
2013-06-16 07:13:00,75.7,36.4,29.84,SW,216,4.0,5.0,24,0.00,,,0.00,312,WeatherHawk,2013-06-16 14:13:00,
2013-06-16 07:15:00,75.7,36.4,29.84,SSW,209,4.0,5.0,24,0.00,,,0.00,299,WeatherHawk,2013-06-16 14:15:00,
2013-06-16 07:17:00,75.7,36.4,29.84,SW,219,4.0,5.0,24,0.00,,,0.00,319,WeatherHawk,2013-06-16 14:17:00,
2013-06-16 07:22:00,76.1,36.7,29.84,SW,218,3.0,5.0,24,0.00,,,0.00,338,WeatherHawk,2013-06-16 14:22:00,
2013-06-16 07:23:00,76.1,36.7,29.85,SSW,207,4.0,5.0,24,0.00,,,0.00,345,WeatherHawk,2013-06-16 14:23:00,
2013-06-16 07:24:00,76.1,36.7,29.85,SW,215,4.0,5.0,24,0.00,,,0.00,351,WeatherHawk,2013-06-16 14:24:00,
2013-06-16 07:26:00,76.3,36.8,29.85,SW,217,4.0,5.0,24,0.00,,,0.00,351,WeatherHawk,2013-06-16 14:26:00,
2013-06-16 07:29:00,76.5,37.0,29.85,SW,216,3.0,4.0,24,0.00,,,0.00,370,WeatherHawk,2013-06-16 14:29:00,
2013-06-16 07:31:00,76.8,37.3,29.85,SW,214,2.0,4.0,24,0.00,,,0.00,380,WeatherHawk,2013-06-16 14:31:00,
2013-06-16 07:32:00,77.0,37.4,29.85,South,189,2.0,4.0,24,0.00,,,0.00,385,WeatherHawk,2013-06-16 14:32:00,
2013-06-16 07:33:00,77.0,37.4,29.85,SSW,198,2.0,4.0,24,0.00,,,0.00,387,WeatherHawk,2013-06-16 14:33:00,
2013-06-16 07:35:00,77.4,37.7,29.85,SW,226,2.0,4.0,24,0.00,,,0.00,395,WeatherHawk,2013-06-16 14:35:00,
2013-06-16 07:37:00,77.4,38.8,29.85,SSW,199,2.0,4.0,25,0.00,,,0.00,402,WeatherHawk,2013-06-16 14:37:00,
2013-06-16 07:38:00,77.5,37.9,29.85,SW,225,2.0,4.0,24,0.00,,,0.00,407,WeatherHawk,2013-06-16 14:38:00,
2013-06-16 07:39:00,77.7,38.0,29.85,SSW,201,2.0,4.0,24,0.00,,,0.00,414,WeatherHawk,2013-06-16 14:39:00,
2013-06-16 07:41:00,77.9,38.2,29.85,South,191,2.0,4.0,24,0.00,,,0.00,421,WeatherHawk,2013-06-16 14:41:00,
2013-06-16 07:43:00,78.3,37.4,29.85,SW,232,3.0,4.0,23,0.00,,,0.00,430,WeatherHawk,2013-06-16 14:43:00,
2013-06-16 07:45:00,78.4,36.4,29.85,SW,215,3.0,4.0,22,0.00,,,0.00,433,WeatherHawk,2013-06-16 14:45:00,
2013-06-16 07:46:00,78.8,36.7,29.85,SW,232,2.0,4.0,22,0.00,,,0.00,439,WeatherHawk,2013-06-16 14:46:00,
2013-06-16 07:47:00,79.0,36.9,29.85,SSW,197,2.0,4.0,22,0.00,,,0.00,442,WeatherHawk,2013-06-16 14:47:00,
2013-06-16 07:49:00,79.7,37.5,29.86,South,171,2.0,3.0,22,0.00,,,0.00,451,WeatherHawk,2013-06-16 14:49:00,
2013-06-16 07:51:00,79.9,37.6,29.86,SSW,203,2.0,3.0,22,0.00,,,0.00,456,WeatherHawk,2013-06-16 14:51:00,
2013-06-16 07:52:00,80.1,38.9,29.86,South,171,2.0,-999.0,23,0.00,,,0.00,458,WeatherHawk,2013-06-16 14:52:00,
2013-06-16 07:54:00,80.6,38.2,29.86,South,180,1.0,3.0,22,0.00,,,0.00,466,WeatherHawk,2013-06-16 14:54:00,
2013-06-16 07:57:00,81.1,37.5,29.86,SE,144,2.0,3.0,21,0.00,,,0.00,479,WeatherHawk,2013-06-16 14:57:00,
2013-06-16 07:58:00,81.1,37.5,29.86,SE,134,3.0,3.0,21,0.00,,,0.00,484,WeatherHawk,2013-06-16 14:58:00,
2013-06-16 08:02:00,81.9,38.1,29.86,ESE,107,1.0,3.0,21,0.00,,,0.00,495,WeatherHawk,2013-06-16 15:02:00,
2013-06-16 08:04:00,82.6,37.4,29.86,South,181,2.0,3.0,20,0.00,,,0.00,506,WeatherHawk,2013-06-16 15:04:00,
2013-06-16 08:07:00,82.4,37.3,29.86,SSE,159,1.0,-999.0,20,0.00,,,0.00,515,WeatherHawk,2013-06-16 15:07:00,
2013-06-16 08:09:00,82.8,36.3,29.86,SE,126,1.0,3.0,19,0.00,,,0.00,523,WeatherHawk,2013-06-16 15:09:00,
2013-06-16 08:11:00,83.5,36.9,29.86,SSE,162,1.0,3.0,19,0.00,,,0.00,534,WeatherHawk,2013-06-16 15:11:00,
2013-06-16 08:12:00,83.5,36.9,29.86,SSE,162,1.0,-999.0,19,0.00,,,0.00,534,WeatherHawk,2013-06-16 15:12:00,
2013-06-16 08:15:00,84.0,37.3,29.86,NNW,347,1.0,3.0,19,0.00,,,0.00,549,WeatherHawk,2013-06-16 15:15:00,
2013-06-16 08:17:00,83.8,37.2,29.87,North,356,2.0,3.0,19,0.00,,,0.00,552,WeatherHawk,2013-06-16 15:17:00,
2013-06-16 08:19:00,83.8,35.8,29.87,NW,320,3.0,3.0,18,0.00,,,0.00,560,WeatherHawk,2013-06-16 15:19:00,
2013-06-16 08:21:00,84.0,35.9,29.87,NW,318,2.0,3.0,18,0.00,,,0.00,571,WeatherHawk,2013-06-16 15:21:00,
2013-06-16 08:22:00,84.0,35.9,29.87,NW,318,2.0,-999.0,18,0.00,,,0.00,571,WeatherHawk,2013-06-16 15:22:00,
2013-06-16 08:24:00,84.6,36.4,29.87,WNW,285,3.0,3.0,18,0.00,,,0.00,582,WeatherHawk,2013-06-16 15:24:00,
2013-06-16 08:26:00,84.7,35.1,29.87,NW,312,2.0,3.0,17,0.00,,,0.00,589,WeatherHawk,2013-06-16 15:26:00,
2013-06-16 08:27:00,84.7,35.1,29.87,NW,312,2.0,3.0,17,0.00,,,0.00,589,WeatherHawk,2013-06-16 15:27:00,
2013-06-16 08:28:00,84.9,35.2,29.87,WNW,284,1.0,4.0,17,0.00,,,0.00,596,WeatherHawk,2013-06-16 15:28:00,
2013-06-16 08:32:00,85.3,34.0,29.87,WNW,288,2.0,-999.0,16,0.00,,,0.00,606,WeatherHawk,2013-06-16 15:32:00,
2013-06-16 08:34:00,85.5,34.1,29.87,NW,310,2.0,4.0,16,0.00,,,0.00,616,WeatherHawk,2013-06-16 15:34:00,
2013-06-16 08:36:00,85.5,34.1,29.87,WNW,294,1.0,4.0,16,0.00,,,0.00,623,WeatherHawk,2013-06-16 15:36:00,
2013-06-16 08:37:00,85.5,34.1,29.87,WNW,294,1.0,4.0,16,0.00,,,0.00,623,WeatherHawk,2013-06-16 15:37:00,
2013-06-16 08:39:00,85.6,31.0,29.87,NE,34,4.0,4.0,14,0.00,,,0.00,634,WeatherHawk,2013-06-16 15:39:00,
2013-06-16 08:40:00,85.6,32.7,29.87,North,356,2.0,3.0,15,0.00,,,0.00,638,WeatherHawk,2013-06-16 15:40:00,
2013-06-16 08:42:00,85.6,34.3,29.87,NNW,344,2.0,3.0,16,0.00,,,0.00,645,WeatherHawk,2013-06-16 15:42:00,
2013-06-16 08:43:00,85.6,34.3,29.87,NW,321,4.0,4.0,16,0.00,,,0.00,647,WeatherHawk,2013-06-16 15:43:00,
2013-06-16 08:45:00,85.8,32.8,29.87,WNW,301,4.0,4.0,15,0.00,,,0.00,656,WeatherHawk,2013-06-16 15:45:00,
2013-06-16 08:47:00,86.0,32.9,29.87,North,358,4.0,4.0,15,0.00,,,0.00,662,WeatherHawk,2013-06-16 15:47:00,
2013-06-16 08:48:00,86.2,33.1,29.87,NNW,336,3.0,6.0,15,0.00,,,0.00,666,WeatherHawk,2013-06-16 15:48:00,
2013-06-16 08:49:00,86.2,33.1,29.87,NNW,338,2.0,6.0,15,0.00,,,0.00,671,WeatherHawk,2013-06-16 15:49:00,
2013-06-16 08:52:00,86.2,33.1,29.87,NNW,333,3.0,-999.0,15,0.00,,,0.00,674,WeatherHawk,2013-06-16 15:52:00,
2013-06-16 08:54:00,86.5,33.4,29.87,NW,323,4.0,6.0,15,0.00,,,0.00,685,WeatherHawk,2013-06-16 15:54:00,
2013-06-16 08:57:00,86.7,33.5,29.87,NW,326,3.0,6.0,15,0.00,,,0.00,693,WeatherHawk,2013-06-16 15:57:00,
2013-06-16 09:00:00,87.1,33.8,29.87,WNW,301,2.0,6.0,15,0.00,,,0.00,704,WeatherHawk,2013-06-16 16:00:00,
2013-06-16 09:02:00,87.3,33.9,29.87,NNW,338,5.0,6.0,15,0.00,,,0.00,711,WeatherHawk,2013-06-16 16:02:00,
2013-06-16 09:04:00,87.1,33.8,29.87,NW,309,4.0,6.0,15,0.00,,,0.00,716,WeatherHawk,2013-06-16 16:04:00,
2013-06-16 09:07:00,87.3,33.9,29.87,NW,324,5.0,6.0,15,0.00,,,0.00,726,WeatherHawk,2013-06-16 16:07:00,
2013-06-16 09:10:00,87.6,34.2,29.87,NW,309,3.0,8.0,15,0.00,,,0.00,736,WeatherHawk,2013-06-16 16:10:00,
2013-06-16 09:12:00,87.6,34.2,29.87,NW,304,3.0,8.0,15,0.00,,,0.00,733,WeatherHawk,2013-06-16 16:12:00,
2013-06-16 09:16:00,88.3,34.8,29.87,NW,316,3.0,8.0,15,0.00,,,0.00,756,WeatherHawk,2013-06-16 16:16:00,
2013-06-16 09:17:00,88.3,34.8,29.87,NW,316,3.0,-999.0,15,0.00,,,0.00,756,WeatherHawk,2013-06-16 16:17:00,
2013-06-16 09:19:00,88.3,34.8,29.87,WNW,293,2.0,0.0,15,0.00,,,0.00,763,WeatherHawk,2013-06-16 16:19:00,
2013-06-16 09:20:00,88.5,34.9,29.87,NW,312,5.0,0.0,15,0.00,,,0.00,769,WeatherHawk,2013-06-16 16:20:00,
2013-06-16 09:21:00,88.5,34.9,29.87,NNW,332,4.0,0.0,15,0.00,,,0.00,772,WeatherHawk,2013-06-16 16:21:00,
2013-06-16 09:22:00,88.5,34.9,29.87,NNW,332,4.0,0.0,15,0.00,,,0.00,772,WeatherHawk,2013-06-16 16:22:00,
2013-06-16 09:23:00,88.9,33.5,29.87,NW,313,7.0,0.0,14,0.00,,,0.00,779,WeatherHawk,2013-06-16 16:23:00,
2013-06-16 09:26:00,89.1,31.8,29.87,NNW,339,6.0,0.0,13,0.00,,,0.00,787,WeatherHawk,2013-06-16 16:26:00,
2013-06-16 09:27:00,89.1,31.8,29.87,North,350,6.0,-999.0,13,0.00,,,0.00,790,WeatherHawk,2013-06-16 16:27:00,
2013-06-16 09:28:00,89.1,31.8,29.87,NW,326,3.0,0.0,13,0.00,,,0.00,795,WeatherHawk,2013-06-16 16:28:00,
2013-06-16 09:29:00,89.4,32.1,29.87,NW,311,8.0,9.0,13,0.00,,,0.00,796,WeatherHawk,2013-06-16 16:29:00,
2013-06-16 09:32:00,89.6,28.1,29.87,NW,319,7.0,-999.0,11,0.00,,,0.00,809,WeatherHawk,2013-06-16 16:32:00,
2013-06-16 09:33:00,90.0,28.4,29.87,West,259,6.0,9.0,11,0.00,,,0.00,814,WeatherHawk,2013-06-16 16:33:00,
2013-06-16 09:34:00,90.1,26.2,29.87,WNW,292,9.0,9.0,10,0.00,,,0.00,818,WeatherHawk,2013-06-16 16:34:00,
2013-06-16 09:37:00,90.7,28.9,29.87,WNW,288,8.0,-999.0,11,0.00,,,0.00,824,WeatherHawk,2013-06-16 16:37:00,
2013-06-16 09:39:00,90.9,26.8,29.87,West,269,8.0,0.0,10,0.00,,,0.00,825,WeatherHawk,2013-06-16 16:39:00,
2013-06-16 09:42:00,90.9,26.8,29.87,WNW,294,7.0,0.0,10,0.00,,,0.00,839,WeatherHawk,2013-06-16 16:42:00,
2013-06-16 09:44:00,91.0,26.9,29.87,WNW,286,6.0,0.0,10,0.00,,,0.00,847,WeatherHawk,2013-06-16 16:44:00,
2013-06-16 09:46:00,91.0,26.9,29.87,NW,311,7.0,0.0,10,0.00,,,0.00,855,WeatherHawk,2013-06-16 16:46:00,
2013-06-16 09:47:00,91.0,26.9,29.87,NW,311,7.0,0.0,10,0.00,,,0.00,855,WeatherHawk,2013-06-16 16:47:00,
2013-06-16 09:50:00,91.0,26.9,29.87,NW,311,7.0,0.0,10,0.00,,,0.00,863,WeatherHawk,2013-06-16 16:50:00,
2013-06-16 09:52:00,91.2,29.3,29.87,NW,314,8.0,0.0,11,0.00,,,0.00,869,WeatherHawk,2013-06-16 16:52:00,
2013-06-16 09:53:00,91.4,29.5,29.87,NNW,335,8.0,0.0,11,0.00,,,0.00,873,WeatherHawk,2013-06-16 16:53:00,
2013-06-16 09:57:00,91.6,27.3,29.87,WNW,298,4.0,0.0,10,0.00,,,0.00,883,WeatherHawk,2013-06-16 16:57:00,
2013-06-16 09:58:00,91.9,27.6,29.87,NW,325,4.0,10.0,10,0.00,,,0.00,886,WeatherHawk,2013-06-16 16:58:00,
2013-06-16 10:00:00,92.3,27.8,29.87,WNW,293,7.0,10.0,10,0.00,,,0.00,886,WeatherHawk,2013-06-16 17:00:00,
2013-06-16 10:02:00,92.5,25.4,29.87,West,269,9.0,10.0,9,0.00,,,0.00,895,WeatherHawk,2013-06-16 17:02:00,
2013-06-16 10:04:00,92.5,28.0,29.87,WNW,295,10.0,10.0,10,0.00,,,0.00,902,WeatherHawk,2013-06-16 17:04:00,
2013-06-16 10:06:00,91.9,27.6,29.87,NW,309,6.0,10.0,10,0.00,,,0.00,909,WeatherHawk,2013-06-16 17:06:00,
2013-06-16 10:08:00,91.8,27.4,29.87,WNW,302,4.0,0.0,10,0.00,,,0.00,915,WeatherHawk,2013-06-16 17:08:00,
2013-06-16 10:11:00,91.9,25.0,29.87,NW,304,9.0,0.0,9,0.00,,,0.00,923,WeatherHawk,2013-06-16 17:11:00,
2013-06-16 10:12:00,91.9,25.0,29.87,NW,304,9.0,-999.0,9,0.00,,,0.00,923,WeatherHawk,2013-06-16 17:12:00,
2013-06-16 10:13:00,92.3,25.3,29.87,WNW,287,7.0,0.0,9,0.00,,,0.00,925,WeatherHawk,2013-06-16 17:13:00,
2013-06-16 10:17:00,92.7,25.6,29.87,WNW,298,8.0,0.0,9,0.00,,,0.00,933,WeatherHawk,2013-06-16 17:17:00,
2013-06-16 10:18:00,92.5,25.4,29.87,West,267,10.0,12.0,9,0.00,,,0.00,940,WeatherHawk,2013-06-16 17:18:00,
2013-06-16 10:20:00,92.3,25.3,29.87,West,261,6.0,12.0,9,0.00,,,0.00,946,WeatherHawk,2013-06-16 17:20:00,
2013-06-16 10:22:00,92.5,25.4,29.87,WNW,294,5.0,12.0,9,0.00,,,0.00,949,WeatherHawk,2013-06-16 17:22:00,
2013-06-16 10:23:00,92.8,25.7,29.87,WNW,290,11.0,12.0,9,0.00,,,0.00,951,WeatherHawk,2013-06-16 17:23:00,
2013-06-16 10:25:00,93.0,23.0,29.87,WNW,290,9.0,12.0,8,0.00,,,0.00,959,WeatherHawk,2013-06-16 17:25:00,
2013-06-16 10:27:00,93.0,23.0,29.87,WNW,298,9.0,12.0,8,0.00,,,0.00,961,WeatherHawk,2013-06-16 17:27:00,
2013-06-16 10:31:00,93.2,26.0,29.87,WNW,290,7.0,0.0,9,0.00,,,0.00,973,WeatherHawk,2013-06-16 17:31:00,
2013-06-16 10:32:00,93.2,26.0,29.87,WNW,290,7.0,0.0,9,0.00,,,0.00,973,WeatherHawk,2013-06-16 17:32:00,
2013-06-16 10:35:00,93.4,23.3,29.87,West,280,5.0,0.0,8,0.00,,,0.00,981,WeatherHawk,2013-06-16 17:35:00,
2013-06-16 10:37:00,93.6,23.4,29.86,NW,309,6.0,0.0,8,0.00,,,0.00,986,WeatherHawk,2013-06-16 17:37:00,
2013-06-16 10:39:00,93.6,23.4,29.86,WNW,298,6.0,0.0,8,0.00,,,0.00,991,WeatherHawk,2013-06-16 17:39:00,
2013-06-16 10:40:00,93.6,23.4,29.86,West,274,8.0,0.0,8,0.00,,,0.00,993,WeatherHawk,2013-06-16 17:40:00,
2013-06-16 10:42:00,93.6,23.4,29.86,West,274,8.0,0.0,8,0.00,,,0.00,993,WeatherHawk,2013-06-16 17:42:00,
2013-06-16 10:43:00,93.7,26.4,29.86,WNW,298,8.0,0.0,9,0.00,,,0.00,1001,WeatherHawk,2013-06-16 17:43:00,
2013-06-16 10:45:00,93.7,26.4,29.87,WNW,302,6.0,0.0,9,0.00,,,0.00,1002,WeatherHawk,2013-06-16 17:45:00,
2013-06-16 10:47:00,93.7,23.5,29.87,NW,318,6.0,-999.0,8,0.00,,,0.00,1007,WeatherHawk,2013-06-16 17:47:00,
2013-06-16 10:49:00,93.6,23.4,29.86,WSW,244,4.0,0.0,8,0.00,,,0.00,1014,WeatherHawk,2013-06-16 17:49:00,
2013-06-16 10:50:00,93.9,20.5,29.86,West,276,4.0,0.0,7,0.00,,,0.00,1014,WeatherHawk,2013-06-16 17:50:00,
2013-06-16 10:51:00,94.1,20.7,29.86,NW,318,4.0,0.0,7,0.00,,,0.00,1012,WeatherHawk,2013-06-16 17:51:00,
2013-06-16 10:52:00,94.1,20.7,29.86,NW,318,4.0,0.0,7,0.00,,,0.00,1012,WeatherHawk,2013-06-16 17:52:00,
2013-06-16 10:54:00,94.5,24.1,29.86,WNW,303,7.0,0.0,8,0.00,,,0.00,1022,WeatherHawk,2013-06-16 17:54:00,
2013-06-16 10:57:00,94.5,24.1,29.86,WNW,303,7.0,-999.0,8,0.00,,,0.00,1022,WeatherHawk,2013-06-16 17:57:00,
2013-06-16 11:00:00,94.3,23.9,29.86,West,263,4.0,9.0,8,0.00,,,0.00,1033,WeatherHawk,2013-06-16 18:00:00,
2013-06-16 11:02:00,94.3,23.9,29.86,West,274,4.0,9.0,8,0.00,,,0.00,1035,WeatherHawk,2013-06-16 18:02:00,
2013-06-16 11:03:00,94.3,23.9,29.86,West,274,4.0,-999.0,8,0.00,,,0.00,1035,WeatherHawk,2013-06-16 18:03:00,
2013-06-16 11:04:00,94.6,24.2,29.86,WNW,301,9.0,9.0,8,0.00,,,0.00,1033,WeatherHawk,2013-06-16 18:04:00,
2013-06-16 11:08:00,94.5,24.1,29.86,NW,319,5.0,9.0,8,0.00,,,0.00,1045,WeatherHawk,2013-06-16 18:08:00,
2013-06-16 11:10:00,94.8,24.3,29.86,West,278,9.0,11.0,8,0.00,,,0.00,1052,WeatherHawk,2013-06-16 18:10:00,
2013-06-16 11:11:00,95.0,24.5,29.86,West,262,6.0,11.0,8,0.00,,,0.00,1052,WeatherHawk,2013-06-16 18:11:00,
2013-06-16 11:12:00,94.8,24.3,29.86,NW,315,8.0,11.0,8,0.00,,,0.00,1054,WeatherHawk,2013-06-16 18:12:00,
2013-06-16 11:13:00,94.8,24.3,29.86,NW,315,8.0,-999.0,8,0.00,,,0.00,1054,WeatherHawk,2013-06-16 18:13:00,
2013-06-16 11:17:00,94.6,24.2,29.86,West,279,8.0,11.0,8,0.00,,,0.00,1061,WeatherHawk,2013-06-16 18:17:00,
2013-06-16 11:18:00,94.6,24.2,29.86,West,279,8.0,11.0,8,0.00,,,0.00,1061,WeatherHawk,2013-06-16 18:18:00,
2013-06-16 11:21:00,95.4,24.7,29.86,WNW,290,5.0,11.0,8,0.00,,,0.00,1068,WeatherHawk,2013-06-16 18:21:00,
2013-06-16 11:23:00,95.2,24.6,29.86,SW,233,2.0,11.0,8,0.00,,,0.00,1070,WeatherHawk,2013-06-16 18:23:00,
2013-06-16 11:26:00,95.2,21.4,29.86,NW,323,5.0,11.0,7,0.00,,,0.00,1069,WeatherHawk,2013-06-16 18:26:00,
2013-06-16 11:28:00,95.2,21.4,29.86,WNW,291,8.0,11.0,7,0.00,,,0.00,1079,WeatherHawk,2013-06-16 18:28:00,
2013-06-16 11:29:00,95.4,21.6,29.86,WNW,292,7.0,10.0,7,0.00,,,0.00,1083,WeatherHawk,2013-06-16 18:29:00,
2013-06-16 11:31:00,95.7,21.8,29.86,WNW,291,4.0,10.0,7,0.00,,,0.00,1083,WeatherHawk,2013-06-16 18:31:00,
2013-06-16 11:33:00,95.9,22.0,29.86,NW,308,4.0,10.0,7,0.00,,,0.00,1088,WeatherHawk,2013-06-16 18:33:00,
2013-06-16 11:36:00,95.9,22.0,29.86,WNW,297,10.0,10.0,7,0.00,,,0.00,1091,WeatherHawk,2013-06-16 18:36:00,
2013-06-16 11:38:00,95.9,22.0,29.86,WNW,286,6.0,-999.0,7,0.00,,,0.00,1091,WeatherHawk,2013-06-16 18:38:00,
2013-06-16 11:39:00,95.9,22.0,29.86,WSW,257,3.0,11.0,7,0.00,,,0.00,1093,WeatherHawk,2013-06-16 18:39:00,
2013-06-16 11:43:00,96.4,22.3,29.86,WNW,301,4.0,11.0,7,0.00,,,0.00,1098,WeatherHawk,2013-06-16 18:43:00,
2013-06-16 11:46:00,96.6,22.5,29.86,West,273,6.0,11.0,7,0.00,,,0.00,1100,WeatherHawk,2013-06-16 18:46:00,
2013-06-16 11:48:00,96.6,22.5,29.86,WSW,252,4.0,-999.0,7,0.00,,,0.00,1102,WeatherHawk,2013-06-16 18:48:00,
2013-06-16 11:50:00,96.8,22.6,29.86,NNW,330,5.0,12.0,7,0.00,,,0.00,1106,WeatherHawk,2013-06-16 18:50:00,
2013-06-16 11:51:00,96.6,22.5,29.86,NNW,333,4.0,12.0,7,0.00,,,0.00,1107,WeatherHawk,2013-06-16 18:51:00,
2013-06-16 11:53:00,96.8,22.6,29.86,NW,311,9.0,12.0,7,0.00,,,0.00,1105,WeatherHawk,2013-06-16 18:53:00,
2013-06-16 11:55:00,97.0,22.7,29.86,WNW,295,5.0,12.0,7,0.00,,,0.00,1108,WeatherHawk,2013-06-16 18:55:00,
2013-06-16 11:56:00,97.0,22.7,29.86,West,267,5.0,12.0,7,0.00,,,0.00,1110,WeatherHawk,2013-06-16 18:56:00,
2013-06-16 11:58:00,97.2,22.9,29.86,West,270,6.0,-999.0,7,0.00,,,0.00,1112,WeatherHawk,2013-06-16 18:58:00,
2013-06-16 11:59:00,97.2,19.2,29.86,NW,314,7.0,11.0,6,0.00,,,0.00,1113,WeatherHawk,2013-06-16 18:59:00,
2013-06-16 12:01:00,97.2,22.9,29.86,West,261,7.0,11.0,7,0.00,,,0.00,1113,WeatherHawk,2013-06-16 19:01:00,
2013-06-16 12:03:00,97.2,22.9,29.86,West,263,6.0,11.0,7,0.00,,,0.00,1117,WeatherHawk,2013-06-16 19:03:00,
2013-06-16 12:05:00,97.0,22.7,29.86,NNW,336,3.0,11.0,7,0.00,,,0.00,1117,WeatherHawk,2013-06-16 19:05:00,
2013-06-16 12:06:00,96.8,19.0,29.86,WNW,300,2.0,11.0,6,0.00,,,0.00,1118,WeatherHawk,2013-06-16 19:06:00,
2013-06-16 12:08:00,96.8,19.0,29.86,NW,322,3.0,11.0,6,0.00,,,0.00,1119,WeatherHawk,2013-06-16 19:08:00,
2013-06-16 12:10:00,97.5,19.5,29.85,WNW,282,7.0,9.0,6,0.00,,,0.00,1124,WeatherHawk,2013-06-16 19:10:00,
2013-06-16 12:12:00,97.7,19.6,29.85,NW,316,7.0,9.0,6,0.00,,,0.00,1124,WeatherHawk,2013-06-16 19:12:00,
2013-06-16 12:13:00,97.7,19.6,29.85,NW,316,7.0,9.0,6,0.00,,,0.00,1124,WeatherHawk,2013-06-16 19:13:00,
2013-06-16 12:14:00,97.7,19.6,29.85,WNW,291,6.0,9.0,6,0.00,,,0.00,1124,WeatherHawk,2013-06-16 19:14:00,
2013-06-16 12:16:00,97.5,19.5,29.85,ESE,120,0.0,9.0,6,0.00,,,0.00,1125,WeatherHawk,2013-06-16 19:16:00,
2013-06-16 12:19:00,97.9,23.4,29.85,NNW,339,6.0,10.0,7,0.00,,,0.00,1126,WeatherHawk,2013-06-16 19:19:00,
2013-06-16 12:21:00,97.9,23.4,29.85,WNW,290,7.0,10.0,7,0.00,,,0.00,1127,WeatherHawk,2013-06-16 19:21:00,
2013-06-16 12:23:00,97.9,23.4,29.85,WSW,257,4.0,-999.0,7,0.00,,,0.00,1127,WeatherHawk,2013-06-16 19:23:00,
2013-06-16 12:24:00,98.1,19.9,29.85,NNE,24,3.0,10.0,6,0.00,,,0.00,1128,WeatherHawk,2013-06-16 19:24:00,
2013-06-16 12:27:00,98.1,23.5,29.85,WNW,283,2.0,10.0,7,0.00,,,0.00,1128,WeatherHawk,2013-06-16 19:27:00,
2013-06-16 12:28:00,98.1,23.5,29.85,WNW,283,2.0,10.0,7,0.00,,,0.00,1128,WeatherHawk,2013-06-16 19:28:00,
2013-06-16 12:29:00,98.6,20.3,29.85,West,281,8.0,9.0,6,0.00,,,0.00,1129,WeatherHawk,2013-06-16 19:29:00,
2013-06-16 12:31:00,98.4,20.1,29.85,West,267,7.0,9.0,6,0.00,,,0.00,1129,WeatherHawk,2013-06-16 19:31:00,
2013-06-16 12:33:00,98.6,20.3,29.85,WNW,296,6.0,-999.0,6,0.00,,,0.00,1128,WeatherHawk,2013-06-16 19:33:00,
2013-06-16 12:36:00,98.2,20.0,29.85,NW,306,4.0,9.0,6,0.00,,,0.00,1127,WeatherHawk,2013-06-16 19:36:00,
2013-06-16 12:37:00,98.2,20.0,29.85,NW,309,3.0,9.0,6,0.00,,,0.00,1129,WeatherHawk,2013-06-16 19:37:00,
2013-06-16 12:38:00,98.2,20.0,29.85,NW,309,3.0,9.0,6,0.00,,,0.00,1129,WeatherHawk,2013-06-16 19:38:00,
2013-06-16 12:40:00,98.8,20.4,29.84,WSW,257,3.0,11.0,6,0.00,,,0.00,1132,WeatherHawk,2013-06-16 19:40:00,
2013-06-16 12:42:00,98.8,20.4,29.84,North,3,2.0,11.0,6,0.00,,,0.00,1132,WeatherHawk,2013-06-16 19:42:00,
2013-06-16 12:43:00,98.8,20.4,29.84,North,3,2.0,11.0,6,0.00,,,0.00,1132,WeatherHawk,2013-06-16 19:43:00,
2013-06-16 12:48:00,99.0,20.5,29.84,NW,323,4.0,11.0,6,0.00,,,0.00,1128,WeatherHawk,2013-06-16 19:48:00,
2013-06-16 12:50:00,99.1,20.6,29.84,NW,316,5.0,6.0,6,0.00,,,0.00,1130,WeatherHawk,2013-06-16 19:50:00,
2013-06-16 12:51:00,99.1,20.6,29.84,NNW,338,5.0,6.0,6,0.00,,,0.00,1130,WeatherHawk,2013-06-16 19:51:00,
2013-06-16 12:52:00,99.0,20.5,29.84,NNW,333,4.0,6.0,6,0.00,,,0.00,1129,WeatherHawk,2013-06-16 19:52:00,
2013-06-16 12:53:00,99.0,20.5,29.84,NNW,333,4.0,6.0,6,0.00,,,0.00,1129,WeatherHawk,2013-06-16 19:53:00,
2013-06-16 12:56:00,98.8,20.4,29.84,South,173,2.0,6.0,6,0.00,,,0.00,1131,WeatherHawk,2013-06-16 19:56:00,
2013-06-16 12:58:00,99.0,20.5,29.84,NNW,343,1.0,6.0,6,0.00,,,0.00,1132,WeatherHawk,2013-06-16 19:58:00,
2013-06-16 13:03:00,99.9,21.1,29.84,NNW,331,8.0,8.0,6,0.00,,,0.00,1129,WeatherHawk,2013-06-16 20:03:00,
2013-06-16 13:04:00,99.1,20.6,29.84,NNW,343,5.0,8.0,6,0.00,,,0.00,1124,WeatherHawk,2013-06-16 20:04:00,
2013-06-16 13:05:00,99.0,20.5,29.84,NNE,24,3.0,8.0,6,0.00,,,0.00,1125,WeatherHawk,2013-06-16 20:05:00,
2013-06-16 13:08:00,99.1,20.6,29.84,North,356,10.0,10.0,6,0.00,,,0.00,1124,WeatherHawk,2013-06-16 20:08:00,
2013-06-16 13:11:00,99.0,20.5,29.84,NNW,348,5.0,10.0,6,0.00,,,0.00,1122,WeatherHawk,2013-06-16 20:11:00,
2013-06-16 13:12:00,98.8,20.4,29.84,NNW,336,7.0,10.0,6,0.00,,,0.00,1122,WeatherHawk,2013-06-16 20:12:00,
2013-06-16 13:17:00,99.0,20.5,29.83,NNW,338,7.0,10.0,6,0.00,,,0.00,1117,WeatherHawk,2013-06-16 20:17:00,
2013-06-16 13:18:00,99.0,20.5,29.83,NNW,338,7.0,10.0,6,0.00,,,0.00,1117,WeatherHawk,2013-06-16 20:18:00,
2013-06-16 13:22:00,99.3,20.8,29.83,NW,304,2.0,7.0,6,0.00,,,0.00,1115,WeatherHawk,2013-06-16 20:22:00,
2013-06-16 13:23:00,100.0,21.3,29.83,NW,323,5.0,7.0,6,0.00,,,0.00,1117,WeatherHawk,2013-06-16 20:23:00,
2013-06-16 13:24:00,100.4,21.5,29.83,NW,320,6.0,7.0,6,0.00,,,0.00,1118,WeatherHawk,2013-06-16 20:24:00,
2013-06-16 13:27:00,100.2,21.4,29.83,North,350,4.0,7.0,6,0.00,,,0.00,1111,WeatherHawk,2013-06-16 20:27:00,
2013-06-16 13:29:00,100.2,21.4,29.83,NNW,342,6.0,7.0,6,0.00,,,0.00,1112,WeatherHawk,2013-06-16 20:29:00,
2013-06-16 13:31:00,100.0,21.3,29.83,WNW,301,7.0,7.0,6,0.00,,,0.00,1109,WeatherHawk,2013-06-16 20:31:00,
2013-06-16 13:32:00,100.0,21.3,29.83,WNW,299,4.0,7.0,6,0.00,,,0.00,1106,WeatherHawk,2013-06-16 20:32:00,
2013-06-16 13:34:00,100.6,21.7,29.83,WNW,293,3.0,7.0,6,0.00,,,0.00,1108,WeatherHawk,2013-06-16 20:34:00,
2013-06-16 13:35:00,100.8,21.8,29.83,NW,310,6.0,7.0,6,0.00,,,0.00,1107,WeatherHawk,2013-06-16 20:35:00,
2013-06-16 13:38:00,100.8,21.8,29.82,WNW,302,7.0,9.0,6,0.00,,,0.00,1099,WeatherHawk,2013-06-16 20:38:00,
2013-06-16 13:40:00,100.0,21.3,29.82,NNW,341,5.0,9.0,6,0.00,,,0.00,1098,WeatherHawk,2013-06-16 20:40:00,
2013-06-16 13:42:00,100.0,21.3,29.82,NNW,346,3.0,-999.0,6,0.00,,,0.00,1095,WeatherHawk,2013-06-16 20:42:00,
2013-06-16 13:47:00,100.8,21.8,29.82,NNW,333,12.0,12.0,6,0.00,,,0.00,1088,WeatherHawk,2013-06-16 20:47:00,
2013-06-16 13:49:00,100.6,17.4,29.82,NNW,340,7.0,12.0,5,0.00,,,0.00,1086,WeatherHawk,2013-06-16 20:49:00,
2013-06-16 13:50:00,100.4,17.3,29.82,NW,326,2.0,12.0,5,0.00,,,0.00,1086,WeatherHawk,2013-06-16 20:50:00,
2013-06-16 13:52:00,100.6,21.7,29.82,North,358,7.0,12.0,6,0.00,,,0.00,1082,WeatherHawk,2013-06-16 20:52:00,
2013-06-16 13:53:00,100.8,21.8,29.81,North,353,6.0,12.0,6,0.00,,,0.00,1078,WeatherHawk,2013-06-16 20:53:00,
2013-06-16 13:56:00,101.1,22.0,29.81,North,7,10.0,12.0,6,0.00,,,0.00,1076,WeatherHawk,2013-06-16 20:56:00,
2013-06-16 13:57:00,101.1,22.0,29.81,NNW,339,9.0,12.0,6,0.00,,,0.00,1073,WeatherHawk,2013-06-16 20:57:00,
2013-06-16 13:58:00,101.1,22.0,29.81,NNW,331,11.0,11.0,6,0.00,,,0.00,1072,WeatherHawk,2013-06-16 20:58:00,
2013-06-16 14:01:00,100.2,21.4,29.81,North,0,5.0,11.0,6,0.00,,,0.00,1065,WeatherHawk,2013-06-16 21:01:00,
2013-06-16 14:03:00,100.4,21.5,29.81,NW,315,9.0,11.0,6,0.00,,,0.00,1064,WeatherHawk,2013-06-16 21:03:00,
2013-06-16 14:07:00,100.4,21.5,29.81,ENE,65,4.0,11.0,6,0.00,,,0.00,1055,WeatherHawk,2013-06-16 21:07:00,
2013-06-16 14:11:00,100.6,21.7,29.81,NNE,13,4.0,11.0,6,0.00,,,0.00,1052,WeatherHawk,2013-06-16 21:11:00,
2013-06-16 14:12:00,100.4,21.5,29.81,NNE,29,3.0,11.0,6,0.00,,,0.00,1050,WeatherHawk,2013-06-16 21:12:00,
2013-06-16 14:13:00,100.4,21.5,29.81,ENE,66,3.0,11.0,6,0.00,,,0.00,1048,WeatherHawk,2013-06-16 21:13:00,
2013-06-16 14:17:00,100.6,21.7,29.81,NNW,336,5.0,11.0,6,0.00,,,0.00,1042,WeatherHawk,2013-06-16 21:17:00,
2013-06-16 14:18:00,100.9,21.9,29.81,NW,320,6.0,8.0,6,0.00,,,0.00,1041,WeatherHawk,2013-06-16 21:18:00,
2013-06-16 14:20:00,101.1,22.0,29.81,NNE,18,4.0,8.0,6,0.00,,,0.00,1035,WeatherHawk,2013-06-16 21:20:00,
2013-06-16 14:22:00,101.8,22.5,29.81,NNW,339,6.0,8.0,6,0.00,,,0.00,1034,WeatherHawk,2013-06-16 21:22:00,
2013-06-16 14:23:00,101.7,22.4,29.81,NW,318,5.0,8.0,6,0.00,,,0.00,1032,WeatherHawk,2013-06-16 21:23:00,
2013-06-16 14:26:00,101.5,22.3,29.80,NW,326,3.0,8.0,6,0.00,,,0.00,1027,WeatherHawk,2013-06-16 21:26:00,
2013-06-16 14:27:00,101.7,22.4,29.80,NW,326,3.0,8.0,6,0.00,,,0.00,1023,WeatherHawk,2013-06-16 21:27:00,
2013-06-16 14:28:00,101.7,22.4,29.80,NNW,345,4.0,8.0,6,0.00,,,0.00,1021,WeatherHawk,2013-06-16 21:28:00,
2013-06-16 14:32:00,102.2,18.5,29.80,North,2,2.0,-999.0,5,0.00,,,0.00,1015,WeatherHawk,2013-06-16 21:32:00,
2013-06-16 14:35:00,101.7,22.4,29.80,NNW,341,6.0,8.0,6,0.00,,,0.00,1006,WeatherHawk,2013-06-16 21:35:00,
2013-06-16 14:36:00,101.7,22.4,29.80,North,2,5.0,8.0,6,0.00,,,0.00,1007,WeatherHawk,2013-06-16 21:36:00,
2013-06-16 14:37:00,101.7,22.4,29.80,NW,320,5.0,8.0,6,0.00,,,0.00,1004,WeatherHawk,2013-06-16 21:37:00,
2013-06-16 14:38:00,101.7,22.4,29.80,NNW,331,3.0,9.0,6,0.00,,,0.00,1000,WeatherHawk,2013-06-16 21:38:00,
2013-06-16 14:40:00,101.5,22.3,29.80,North,356,5.0,9.0,6,0.00,,,0.00,996,WeatherHawk,2013-06-16 21:40:00,
2013-06-16 14:42:00,101.8,22.5,29.80,NW,316,13.0,13.0,6,0.00,,,0.00,991,WeatherHawk,2013-06-16 21:42:00,
2013-06-16 14:43:00,101.5,22.3,29.80,West,261,4.0,9.0,6,0.00,,,0.00,986,WeatherHawk,2013-06-16 21:43:00,
2013-06-16 14:44:00,101.5,22.3,29.80,NW,308,3.0,9.0,6,0.00,,,0.00,985,WeatherHawk,2013-06-16 21:44:00,
2013-06-16 14:47:00,101.8,22.5,29.80,NW,308,2.0,9.0,6,0.00,,,0.00,982,WeatherHawk,2013-06-16 21:47:00,
2013-06-16 14:48:00,102.0,22.7,29.80,NNW,348,4.0,13.0,6,0.00,,,0.00,979,WeatherHawk,2013-06-16 21:48:00,
2013-06-16 14:50:00,101.8,22.5,29.80,NNW,337,3.0,13.0,6,0.00,,,0.00,976,WeatherHawk,2013-06-16 21:50:00,
2013-06-16 14:51:00,101.8,22.5,29.80,North,351,6.0,13.0,6,0.00,,,0.00,973,WeatherHawk,2013-06-16 21:51:00,
2013-06-16 14:54:00,101.5,22.3,29.79,East,80,2.0,13.0,6,0.00,,,0.00,963,WeatherHawk,2013-06-16 21:54:00,
2013-06-16 14:56:00,101.7,22.4,29.79,ESE,109,3.0,13.0,6,0.00,,,0.00,950,WeatherHawk,2013-06-16 21:56:00,
2013-06-16 14:57:00,101.7,22.4,29.79,ESE,109,3.0,13.0,6,0.00,,,0.00,950,WeatherHawk,2013-06-16 21:57:00,
2013-06-16 15:00:00,103.6,19.5,29.79,SW,232,2.0,6.0,5,0.00,,,0.00,951,WeatherHawk,2013-06-16 22:00:00,
2013-06-16 15:02:00,104.2,19.9,29.79,NNE,31,1.0,6.0,5,0.00,,,0.00,945,WeatherHawk,2013-06-16 22:02:00,
2013-06-16 15:03:00,104.2,19.9,29.79,SW,214,9.0,9.0,5,0.00,,,0.00,942,WeatherHawk,2013-06-16 22:03:00,
2013-06-16 15:06:00,102.7,18.9,29.79,SW,214,10.0,10.0,5,0.00,,,0.00,930,WeatherHawk,2013-06-16 22:06:00,
2013-06-16 15:07:00,102.7,18.9,29.79,SW,214,10.0,-999.0,5,0.00,,,0.00,930,WeatherHawk,2013-06-16 22:07:00,
2013-06-16 15:08:00,102.6,18.8,29.79,WSW,240,7.0,11.0,5,0.00,,,0.00,929,WeatherHawk,2013-06-16 22:08:00,
2013-06-16 15:12:00,102.2,22.8,29.79,SSW,208,9.0,11.0,6,0.00,,,0.00,921,WeatherHawk,2013-06-16 22:12:00,
2013-06-16 15:14:00,102.7,18.9,29.79,South,187,9.0,11.0,5,0.00,,,0.00,916,WeatherHawk,2013-06-16 22:14:00,
2013-06-16 15:17:00,102.4,22.9,29.79,SSW,207,8.0,-999.0,6,0.00,,,0.00,909,WeatherHawk,2013-06-16 22:17:00,
2013-06-16 15:19:00,102.4,18.6,29.78,South,189,6.0,11.0,5,0.00,,,0.00,906,WeatherHawk,2013-06-16 22:19:00,
2013-06-16 15:22:00,102.2,18.5,29.78,SSE,159,6.0,11.0,5,0.00,,,0.00,898,WeatherHawk,2013-06-16 22:22:00,
2013-06-16 15:23:00,102.2,22.8,29.78,South,175,8.0,11.0,6,0.00,,,0.00,892,WeatherHawk,2013-06-16 22:23:00,
2013-06-16 15:24:00,102.7,23.2,29.78,SSW,203,7.0,11.0,6,0.00,,,0.00,890,WeatherHawk,2013-06-16 22:24:00,
2013-06-16 15:27:00,102.6,23.1,29.78,SSE,150,6.0,11.0,6,0.00,,,0.00,883,WeatherHawk,2013-06-16 22:27:00,
2013-06-16 15:30:00,102.2,22.8,29.78,SSW,199,5.0,11.0,6,0.00,,,0.00,874,WeatherHawk,2013-06-16 22:30:00,
2013-06-16 15:32:00,103.1,23.4,29.78,SW,236,7.0,11.0,6,0.00,,,0.00,866,WeatherHawk,2013-06-16 22:32:00,
2013-06-16 15:35:00,102.7,23.2,29.78,WSW,240,6.0,11.0,6,0.00,,,0.00,857,WeatherHawk,2013-06-16 22:35:00,
2013-06-16 15:37:00,102.7,23.2,29.78,SW,227,5.0,11.0,6,0.00,,,0.00,853,WeatherHawk,2013-06-16 22:37:00,
2013-06-16 15:39:00,102.9,23.3,29.78,WSW,238,2.0,9.0,6,0.00,,,0.00,843,WeatherHawk,2013-06-16 22:39:00,
2013-06-16 15:41:00,103.1,23.4,29.78,SW,226,1.0,9.0,6,0.00,,,0.00,839,WeatherHawk,2013-06-16 22:41:00,
2013-06-16 15:42:00,103.3,23.6,29.78,NNE,23,2.0,9.0,6,0.00,,,0.00,838,WeatherHawk,2013-06-16 22:42:00,
2013-06-16 15:44:00,103.5,19.4,29.78,WSW,246,4.0,9.0,5,0.00,,,0.00,833,WeatherHawk,2013-06-16 22:44:00,
2013-06-16 15:47:00,103.6,19.5,29.78,WSW,253,2.0,9.0,5,0.00,,,0.00,825,WeatherHawk,2013-06-16 22:47:00,
2013-06-16 15:50:00,103.6,19.5,29.78,SW,217,10.0,0.0,5,0.00,,,0.00,811,WeatherHawk,2013-06-16 22:50:00,
2013-06-16 15:52:00,102.6,18.8,29.78,SW,215,9.0,9.0,5,0.00,,,0.00,805,WeatherHawk,2013-06-16 22:52:00,
2013-06-16 15:55:00,102.7,18.9,29.78,WNW,299,2.0,7.0,5,0.00,,,0.00,794,WeatherHawk,2013-06-16 22:55:00,
2013-06-16 15:56:00,102.7,23.2,29.78,WSW,238,5.0,7.0,6,0.00,,,0.00,793,WeatherHawk,2013-06-16 22:56:00,
2013-06-16 15:57:00,102.7,23.2,29.78,WSW,238,5.0,7.0,6,0.00,,,0.00,793,WeatherHawk,2013-06-16 22:57:00,
2013-06-16 16:00:00,102.9,23.3,29.78,SW,223,7.0,13.0,6,0.00,,,0.00,781,WeatherHawk,2013-06-16 23:00:00,
2013-06-16 16:02:00,103.1,19.1,29.77,SW,231,2.0,13.0,5,0.00,,,0.00,775,WeatherHawk,2013-06-16 23:02:00,
2013-06-16 16:04:00,103.1,19.1,29.77,SSW,196,7.0,13.0,5,0.00,,,0.00,767,WeatherHawk,2013-06-16 23:04:00,
2013-06-16 16:06:00,103.6,19.5,29.77,SSW,208,9.0,13.0,5,0.00,,,0.00,755,WeatherHawk,2013-06-16 23:06:00,
2013-06-16 16:07:00,103.6,19.5,29.77,SSW,208,9.0,13.0,5,0.00,,,0.00,755,WeatherHawk,2013-06-16 23:07:00,
2013-06-16 16:10:00,103.6,19.5,29.77,WSW,256,7.0,0.0,5,0.00,,,0.00,743,WeatherHawk,2013-06-16 23:10:00,
2013-06-16 16:12:00,104.0,19.8,29.77,SW,235,6.0,0.0,5,0.00,,,0.00,742,WeatherHawk,2013-06-16 23:12:00,
2013-06-16 16:13:00,103.6,19.5,29.77,SW,228,5.0,0.0,5,0.00,,,0.00,738,WeatherHawk,2013-06-16 23:13:00,
2013-06-16 16:16:00,103.5,19.4,29.77,South,186,6.0,0.0,5,0.00,,,0.00,731,WeatherHawk,2013-06-16 23:16:00,
2013-06-16 16:17:00,103.5,19.4,29.77,South,186,6.0,0.0,5,0.00,,,0.00,731,WeatherHawk,2013-06-16 23:17:00,
2013-06-16 16:22:00,103.6,19.5,29.77,West,275,6.0,11.0,5,0.00,,,0.00,708,WeatherHawk,2013-06-16 23:22:00,
2013-06-16 16:26:00,103.6,27.5,29.77,West,270,7.0,11.0,7,0.00,,,0.00,697,WeatherHawk,2013-06-16 23:26:00,
2013-06-16 16:29:00,103.1,19.1,29.77,WNW,284,9.0,11.0,5,0.00,,,0.00,685,WeatherHawk,2013-06-16 23:29:00,
2013-06-16 16:32:00,103.1,19.1,29.77,West,268,5.0,11.0,5,0.00,,,0.00,675,WeatherHawk,2013-06-16 23:32:00,
2013-06-16 16:33:00,103.1,19.1,29.77,NW,321,2.0,11.0,5,0.00,,,0.00,673,WeatherHawk,2013-06-16 23:33:00,
2013-06-16 16:37:00,103.5,23.7,29.76,NNW,340,4.0,11.0,6,0.00,,,0.00,659,WeatherHawk,2013-06-16 23:37:00,
2013-06-16 16:38:00,103.3,23.6,29.76,NNW,331,8.0,0.0,6,0.00,,,0.00,651,WeatherHawk,2013-06-16 23:38:00,
2013-06-16 16:41:00,103.1,23.4,29.76,NNW,335,8.0,0.0,6,0.00,,,0.00,645,WeatherHawk,2013-06-16 23:41:00,
2013-06-16 16:42:00,103.1,23.4,29.76,NW,318,5.0,-999.0,6,0.00,,,0.00,642,WeatherHawk,2013-06-16 23:42:00,
2013-06-16 16:44:00,103.1,23.4,29.76,NNW,329,6.0,0.0,6,0.00,,,0.00,631,WeatherHawk,2013-06-16 23:44:00,
2013-06-16 16:47:00,103.1,23.4,29.76,NE,41,2.0,0.0,6,0.00,,,0.00,619,WeatherHawk,2013-06-16 23:47:00,
2013-06-16 16:49:00,103.1,19.1,29.76,West,262,7.0,0.0,5,0.00,,,0.00,612,WeatherHawk,2013-06-16 23:49:00,
2013-06-16 16:52:00,103.3,19.3,29.76,West,269,8.0,0.0,5,0.00,,,0.00,601,WeatherHawk,2013-06-16 23:52:00,
2013-06-16 16:54:00,102.9,19.0,29.76,WSW,258,5.0,0.0,5,0.00,,,0.00,589,WeatherHawk,2013-06-16 23:54:00,
2013-06-16 16:57:00,103.3,19.3,29.76,West,276,4.0,0.0,5,0.00,,,0.00,586,WeatherHawk,2013-06-16 23:57:00,
2013-06-16 16:58:00,103.1,19.1,29.76,WSW,250,8.0,0.0,5,0.00,,,0.00,578,WeatherHawk,2013-06-16 23:58:00,
2013-06-16 16:59:00,103.1,19.1,29.76,West,274,7.0,11.0,5,0.00,,,0.00,577,WeatherHawk,2013-06-16 23:59:00,
2013-06-16 17:02:00,103.1,19.1,29.76,NW,309,7.0,11.0,5,0.00,,,0.00,565,WeatherHawk,2013-06-17 00:02:00,
2013-06-16 17:05:00,102.9,23.3,29.76,West,279,7.0,11.0,6,0.00,,,0.00,550,WeatherHawk,2013-06-17 00:05:00,
2013-06-16 17:06:00,102.9,23.3,29.76,WNW,286,11.0,11.0,6,0.00,,,0.00,546,WeatherHawk,2013-06-17 00:06:00,
2013-06-16 17:07:00,102.7,23.2,29.76,West,273,9.0,0.0,6,0.00,,,0.00,543,WeatherHawk,2013-06-17 00:07:00,
2013-06-16 17:10:00,102.7,23.2,29.76,WNW,287,9.0,0.0,6,0.00,,,0.00,532,WeatherHawk,2013-06-17 00:10:00,
2013-06-16 17:12:00,102.6,18.8,29.76,NW,313,7.0,0.0,5,0.00,,,0.00,529,WeatherHawk,2013-06-17 00:12:00,
2013-06-16 17:14:00,102.6,18.8,29.76,NW,311,7.0,0.0,5,0.00,,,0.00,517,WeatherHawk,2013-06-17 00:14:00,
2013-06-16 17:16:00,102.7,18.9,29.76,NW,316,9.0,0.0,5,0.00,,,0.00,510,WeatherHawk,2013-06-17 00:16:00,
2013-06-16 17:17:00,102.7,18.9,29.76,NW,316,9.0,0.0,5,0.00,,,0.00,510,WeatherHawk,2013-06-17 00:17:00,
2013-06-16 17:18:00,102.7,23.2,29.76,West,274,7.0,0.0,6,0.00,,,0.00,503,WeatherHawk,2013-06-17 00:18:00,
2013-06-16 17:19:00,102.7,18.9,29.76,NW,307,7.0,0.0,5,0.00,,,0.00,499,WeatherHawk,2013-06-17 00:19:00,
2013-06-16 17:22:00,102.7,18.9,29.75,WNW,302,9.0,-999.0,5,0.00,,,0.00,490,WeatherHawk,2013-06-17 00:22:00,
2013-06-16 17:24:00,102.6,23.1,29.75,NW,307,9.0,0.0,6,0.00,,,0.00,478,WeatherHawk,2013-06-17 00:24:00,
2013-06-16 17:25:00,102.6,18.8,29.75,WNW,301,10.0,0.0,5,0.00,,,0.00,475,WeatherHawk,2013-06-17 00:25:00,
2013-06-16 17:26:00,102.7,18.9,29.75,WNW,295,8.0,0.0,5,0.00,,,0.00,471,WeatherHawk,2013-06-17 00:26:00,
2013-06-16 17:27:00,102.7,18.9,29.75,WNW,295,8.0,0.0,5,0.00,,,0.00,471,WeatherHawk,2013-06-17 00:27:00,
2013-06-16 17:31:00,102.4,18.6,29.75,WNW,293,9.0,0.0,5,0.00,,,0.00,454,WeatherHawk,2013-06-17 00:31:00,
2013-06-16 17:32:00,102.4,18.6,29.75,WNW,293,9.0,0.0,5,0.00,,,0.00,454,WeatherHawk,2013-06-17 00:32:00,
2013-06-16 17:34:00,102.6,18.8,29.75,WNW,297,9.0,0.0,5,0.00,,,0.00,441,WeatherHawk,2013-06-17 00:34:00,
2013-06-16 17:35:00,102.6,18.8,29.75,NW,305,6.0,0.0,5,0.00,,,0.00,435,WeatherHawk,2013-06-17 00:35:00,
2013-06-16 17:37:00,102.9,23.3,29.75,WNW,300,6.0,0.0,6,0.00,,,0.00,428,WeatherHawk,2013-06-17 00:37:00,
2013-06-16 17:38:00,102.9,23.3,29.75,NW,307,6.0,0.0,6,0.00,,,0.00,423,WeatherHawk,2013-06-17 00:38:00,
2013-06-16 17:41:00,102.6,18.8,29.75,NW,316,7.0,0.0,5,0.00,,,0.00,412,WeatherHawk,2013-06-17 00:41:00,
2013-06-16 17:42:00,102.6,23.1,29.75,NW,323,8.0,0.0,6,0.00,,,0.00,408,WeatherHawk,2013-06-17 00:42:00,
2013-06-16 17:45:00,102.6,23.1,29.75,NW,312,7.0,0.0,6,0.00,,,0.00,399,WeatherHawk,2013-06-17 00:45:00,
2013-06-16 17:46:00,102.6,23.1,29.75,NW,316,7.0,0.0,6,0.00,,,0.00,393,WeatherHawk,2013-06-17 00:46:00,
2013-06-16 17:48:00,102.6,23.1,29.75,WNW,295,9.0,10.0,6,0.00,,,0.00,385,WeatherHawk,2013-06-17 00:48:00,
2013-06-16 17:50:00,102.4,22.9,29.75,NW,309,6.0,10.0,6,0.00,,,0.00,380,WeatherHawk,2013-06-17 00:50:00,
2013-06-16 17:52:00,102.2,22.8,29.75,WNW,299,7.0,10.0,6,0.00,,,0.00,373,WeatherHawk,2013-06-17 00:52:00,
2013-06-16 17:56:00,102.2,22.8,29.75,WNW,303,9.0,10.0,6,0.00,,,0.00,353,WeatherHawk,2013-06-17 00:56:00,
2013-06-16 17:57:00,102.2,22.8,29.75,WNW,302,9.0,10.0,6,0.00,,,0.00,351,WeatherHawk,2013-06-17 00:57:00,
2013-06-16 17:58:00,102.2,22.8,29.75,WNW,302,9.0,10.0,6,0.00,,,0.00,351,WeatherHawk,2013-06-17 00:58:00,
2013-06-16 18:03:00,101.8,26.2,29.75,WNW,300,8.0,11.0,7,0.00,,,0.00,330,WeatherHawk,2013-06-17 01:03:00,
2013-06-16 18:06:00,101.8,22.5,29.75,NW,317,8.0,11.0,6,0.00,,,0.00,313,WeatherHawk,2013-06-17 01:06:00,
2013-06-16 18:08:00,101.8,22.5,29.75,NW,314,8.0,11.0,6,0.00,,,0.00,306,WeatherHawk,2013-06-17 01:08:00,
2013-06-16 18:11:00,102.0,22.7,29.75,NW,308,7.0,9.0,6,0.00,,,0.00,290,WeatherHawk,2013-06-17 01:11:00,
2013-06-16 18:13:00,102.0,18.4,29.75,WNW,303,8.0,9.0,5,0.00,,,0.00,283,WeatherHawk,2013-06-17 01:13:00,
2013-06-16 18:15:00,101.8,26.2,29.75,WNW,292,7.0,9.0,7,0.00,,,0.00,275,WeatherHawk,2013-06-17 01:15:00,
2013-06-16 18:17:00,101.8,26.2,29.75,NW,307,7.0,9.0,7,0.00,,,0.00,265,WeatherHawk,2013-06-17 01:17:00,
2013-06-16 18:18:00,101.8,26.2,29.75,NW,307,7.0,-999.0,7,0.00,,,0.00,265,WeatherHawk,2013-06-17 01:18:00,
2013-06-16 18:22:00,101.5,22.3,29.75,NW,310,7.0,9.0,6,0.00,,,0.00,249,WeatherHawk,2013-06-17 01:22:00,
2013-06-16 18:23:00,101.5,22.3,29.75,NW,310,7.0,9.0,6,0.00,,,0.00,249,WeatherHawk,2013-06-17 01:23:00,
2013-06-16 18:25:00,101.7,22.4,29.75,WNW,299,7.0,9.0,6,0.00,,,0.00,239,WeatherHawk,2013-06-17 01:25:00,
2013-06-16 18:27:00,101.7,22.4,29.75,NW,304,7.0,9.0,6,0.00,,,0.00,225,WeatherHawk,2013-06-17 01:27:00,
2013-06-16 18:28:00,101.7,22.4,29.75,NW,304,7.0,9.0,6,0.00,,,0.00,225,WeatherHawk,2013-06-17 01:28:00,
2013-06-16 18:29:00,101.5,22.3,29.75,WNW,303,6.0,9.0,6,0.00,,,0.00,217,WeatherHawk,2013-06-17 01:29:00,
2013-06-16 18:32:00,101.5,22.3,29.75,WNW,285,5.0,9.0,6,0.00,,,0.00,209,WeatherHawk,2013-06-17 01:32:00,
2013-06-16 18:33:00,101.5,22.3,29.75,WNW,285,6.0,9.0,6,0.00,,,0.00,209,WeatherHawk,2013-06-17 01:33:00,
2013-06-16 18:37:00,101.3,25.8,29.75,WNW,302,5.0,9.0,7,0.00,,,0.00,187,WeatherHawk,2013-06-17 01:37:00,
2013-06-16 18:38:00,101.3,25.8,29.75,WNW,302,5.0,9.0,7,0.00,,,0.00,187,WeatherHawk,2013-06-17 01:38:00,
2013-06-16 18:42:00,101.1,22.0,29.75,WNW,302,5.0,7.0,6,0.00,,,0.00,170,WeatherHawk,2013-06-17 01:42:00,
2013-06-16 18:43:00,101.1,22.0,29.75,WNW,302,5.0,7.0,6,0.00,,,0.00,170,WeatherHawk,2013-06-17 01:43:00,
2013-06-16 18:46:00,101.1,25.7,29.75,WNW,293,5.0,7.0,7,0.00,,,0.00,159,WeatherHawk,2013-06-17 01:46:00,
2013-06-16 18:48:00,101.1,25.7,29.75,WNW,298,4.0,7.0,7,0.00,,,0.00,152,WeatherHawk,2013-06-17 01:48:00,
2013-06-16 18:49:00,100.9,21.9,29.75,WNW,293,6.0,6.0,6,0.00,,,0.00,147,WeatherHawk,2013-06-17 01:49:00,
2013-06-16 18:53:00,100.8,25.5,29.75,WNW,294,4.0,-999.0,7,0.00,,,0.00,139,WeatherHawk,2013-06-17 01:53:00,
2013-06-16 18:54:00,100.6,21.7,29.75,WNW,301,5.0,6.0,6,0.00,,,0.00,130,WeatherHawk,2013-06-17 01:54:00,
2013-06-16 18:55:00,100.6,21.7,29.76,WNW,299,5.0,6.0,6,0.00,,,0.00,126,WeatherHawk,2013-06-17 01:55:00,
2013-06-16 18:58:00,100.6,25.3,29.76,WNW,294,4.0,6.0,7,0.00,,,0.00,122,WeatherHawk,2013-06-17 01:58:00,
2013-06-16 19:01:00,100.4,21.5,29.76,WNW,290,5.0,6.0,6,0.00,,,0.00,113,WeatherHawk,2013-06-17 02:01:00,
2013-06-16 19:02:00,100.2,21.4,29.76,WNW,301,5.0,6.0,6,0.00,,,0.00,110,WeatherHawk,2013-06-17 02:02:00,
2013-06-16 19:03:00,100.2,21.4,29.76,WNW,301,5.0,6.0,6,0.00,,,0.00,110,WeatherHawk,2013-06-17 02:03:00,
2013-06-16 19:04:00,100.2,21.4,29.76,WNW,302,4.0,6.0,6,0.00,,,0.00,108,WeatherHawk,2013-06-17 02:04:00,
2013-06-16 19:06:00,100.2,21.4,29.76,NW,307,4.0,6.0,6,0.00,,,0.00,102,WeatherHawk,2013-06-17 02:06:00,
2013-06-16 19:08:00,100.2,25.1,29.76,WNW,295,4.0,6.0,7,0.00,,,0.00,101,WeatherHawk,2013-06-17 02:08:00,
2013-06-16 19:09:00,100.0,21.3,29.76,NW,309,4.0,5.0,6,0.00,,,0.00,96,WeatherHawk,2013-06-17 02:09:00,
2013-06-16 19:13:00,99.9,21.1,29.76,NW,312,4.0,-999.0,6,0.00,,,0.00,87,WeatherHawk,2013-06-17 02:13:00,
2013-06-16 19:14:00,99.9,21.1,29.76,NW,318,3.0,5.0,6,0.00,,,0.00,80,WeatherHawk,2013-06-17 02:14:00,
2013-06-16 19:16:00,99.9,21.1,29.76,NW,318,4.0,5.0,6,0.00,,,0.00,76,WeatherHawk,2013-06-17 02:16:00,
2013-06-16 19:18:00,99.7,21.0,29.76,NW,322,4.0,-999.0,6,0.00,,,0.00,72,WeatherHawk,2013-06-17 02:18:00,
2013-06-16 19:20:00,99.5,24.5,29.76,NNW,345,3.0,4.0,7,0.00,,,0.00,62,WeatherHawk,2013-06-17 02:20:00,
2013-06-16 19:22:00,99.3,24.4,29.75,NNW,346,3.0,4.0,7,0.00,,,0.00,59,WeatherHawk,2013-06-17 02:22:00,
2013-06-16 19:23:00,99.3,24.4,29.75,NNW,346,3.0,-999.0,7,0.00,,,0.00,59,WeatherHawk,2013-06-17 02:23:00,
2013-06-16 19:26:00,99.0,27.4,29.75,North,349,4.0,4.0,8,0.00,,,0.00,43,WeatherHawk,2013-06-17 02:26:00,
2013-06-16 19:27:00,99.0,27.4,29.75,NNW,348,4.0,4.0,8,0.00,,,0.00,45,WeatherHawk,2013-06-17 02:27:00,
2013-06-16 19:28:00,99.0,27.4,29.75,NNW,348,4.0,4.0,8,0.00,,,0.00,45,WeatherHawk,2013-06-17 02:28:00,
2013-06-16 19:31:00,98.6,30.0,29.75,NNW,346,4.0,4.0,9,0.00,,,0.00,34,WeatherHawk,2013-06-17 02:31:00,
2013-06-16 19:33:00,98.4,27.0,29.75,NNW,347,3.0,4.0,8,0.00,,,0.00,31,WeatherHawk,2013-06-17 02:33:00,
2013-06-16 19:34:00,98.2,29.7,29.75,North,351,4.0,4.0,9,0.00,,,0.00,28,WeatherHawk,2013-06-17 02:34:00,
2013-06-16 19:37:00,97.9,29.4,29.75,North,351,3.0,4.0,9,0.00,,,0.00,22,WeatherHawk,2013-06-17 02:37:00,
2013-06-16 19:38:00,97.9,29.4,29.75,North,351,3.0,4.0,9,0.00,,,0.00,22,WeatherHawk,2013-06-17 02:38:00,
2013-06-16 19:41:00,97.5,26.3,29.75,North,351,3.0,4.0,8,0.00,,,0.00,14,WeatherHawk,2013-06-17 02:41:00,
2013-06-16 19:43:00,97.5,23.1,29.75,North,357,3.0,4.0,7,0.00,,,0.00,11,WeatherHawk,2013-06-17 02:43:00,
2013-06-16 19:44:00,97.5,23.1,29.75,North,349,4.0,4.0,7,0.00,,,0.00,10,WeatherHawk,2013-06-17 02:44:00,
2013-06-16 19:48:00,97.7,19.6,29.75,NNW,346,3.0,-999.0,6,0.00,,,0.00,6,WeatherHawk,2013-06-17 02:48:00,
2013-06-16 19:49:00,97.7,19.6,29.75,NNW,345,4.0,4.0,6,0.00,,,0.00,6,WeatherHawk,2013-06-17 02:49:00,
2013-06-16 19:51:00,97.7,19.6,29.75,NNW,339,4.0,4.0,6,0.00,,,0.00,4,WeatherHawk,2013-06-17 02:51:00,
2013-06-16 19:52:00,97.7,19.6,29.75,NNW,340,4.0,4.0,6,0.00,,,0.00,3,WeatherHawk,2013-06-17 02:52:00,
2013-06-16 19:56:00,97.2,19.2,29.76,North,350,4.0,4.0,6,0.00,,,0.00,2,WeatherHawk,2013-06-17 02:56:00,
2013-06-16 19:57:00,97.0,14.9,29.76,North,354,4.0,4.0,5,0.00,,,0.00,2,WeatherHawk,2013-06-17 02:57:00,
2013-06-16 19:58:00,97.0,14.9,29.76,North,354,4.0,4.0,5,0.00,,,0.00,2,WeatherHawk,2013-06-17 02:58:00,
2013-06-16 20:02:00,97.0,19.1,29.76,North,359,3.0,4.0,6,0.00,,,0.00,1,WeatherHawk,2013-06-17 03:02:00,
2013-06-16 20:03:00,97.0,19.1,29.76,North,359,3.0,4.0,6,0.00,,,0.00,1,WeatherHawk,2013-06-17 03:03:00,
2013-06-16 20:04:00,97.0,19.1,29.76,North,0,4.0,4.0,6,0.00,,,0.00,0,WeatherHawk,2013-06-17 03:04:00,
2013-06-16 20:06:00,97.0,19.1,29.76,NNE,14,4.0,4.0,6,0.00,,,0.00,0,WeatherHawk,2013-06-17 03:06:00,
2013-06-16 20:08:00,96.8,19.0,29.76,NNE,14,4.0,4.0,6,0.00,,,0.00,0,WeatherHawk,2013-06-17 03:08:00,
2013-06-16 20:10:00,96.3,22.2,29.76,NNE,27,3.0,4.0,7,0.00,,,0.00,0,WeatherHawk,2013-06-17 03:10:00,
2013-06-16 20:11:00,96.1,22.1,29.76,NNE,20,3.0,4.0,7,0.00,,,0.00,0,WeatherHawk,2013-06-17 03:11:00,
2013-06-16 20:13:00,95.9,18.3,29.76,NNE,13,3.0,4.0,6,0.00,,,0.00,0,WeatherHawk,2013-06-17 03:13:00,
2013-06-16 20:17:00,96.4,18.7,29.76,North,6,3.0,4.0,6,0.00,,,0.00,0,WeatherHawk,2013-06-17 03:17:00,
2013-06-16 20:18:00,96.4,18.7,29.76,North,2,3.0,4.0,6,0.00,,,0.00,0,WeatherHawk,2013-06-17 03:18:00,
2013-06-16 20:21:00,96.8,19.0,29.75,NNE,12,2.0,4.0,6,0.00,,,0.00,0,WeatherHawk,2013-06-17 03:21:00,
2013-06-16 20:22:00,96.8,19.0,29.75,NNE,18,2.0,4.0,6,0.00,,,0.00,0,WeatherHawk,2013-06-17 03:22:00,
2013-06-16 20:27:00,96.3,18.6,29.76,North,356,1.0,4.0,6,0.00,,,0.00,0,WeatherHawk,2013-06-17 03:27:00,
2013-06-16 20:29:00,96.3,18.6,29.76,NW,316,1.0,3.0,6,0.00,,,0.00,0,WeatherHawk,2013-06-17 03:29:00,
2013-06-16 20:30:00,96.1,18.5,29.76,NW,318,1.0,3.0,6,0.00,,,0.00,0,WeatherHawk,2013-06-17 03:30:00,
2013-06-16 20:33:00,95.9,18.3,29.76,WNW,299,1.0,-999.0,6,0.00,,,0.00,0,WeatherHawk,2013-06-17 03:33:00,
2013-06-16 20:35:00,95.4,18.0,29.76,NNW,340,1.0,3.0,6,0.00,,,0.00,0,WeatherHawk,2013-06-17 03:35:00,
2013-06-16 20:36:00,95.2,17.8,29.76,North,351,1.0,3.0,6,0.00,,,0.00,0,WeatherHawk,2013-06-17 03:36:00,
2013-06-16 20:37:00,95.2,17.8,29.76,North,7,2.0,3.0,6,0.00,,,0.00,0,WeatherHawk,2013-06-17 03:37:00,
2013-06-16 20:38:00,95.4,18.0,29.76,NNE,27,1.0,2.0,6,0.00,,,0.00,0,WeatherHawk,2013-06-17 03:38:00,
2013-06-16 20:40:00,95.5,18.1,29.76,NE,54,1.0,2.0,6,0.00,,,0.00,0,WeatherHawk,2013-06-17 03:40:00,
2013-06-16 20:42:00,95.5,18.1,29.76,NE,49,1.0,-999.0,6,0.00,,,0.00,0,WeatherHawk,2013-06-17 03:42:00,
2013-06-16 20:43:00,95.4,21.6,29.76,East,88,2.0,2.0,7,0.00,,,0.00,0,WeatherHawk,2013-06-17 03:43:00,
2013-06-16 20:44:00,95.2,21.4,29.76,East,89,2.0,2.0,7,0.00,,,0.00,0,WeatherHawk,2013-06-17 03:44:00,
2013-06-16 20:47:00,94.6,21.0,29.76,ESE,106,2.0,2.0,7,0.00,,,0.00,0,WeatherHawk,2013-06-17 03:47:00,
2013-06-16 20:48:00,94.6,21.0,29.76,ESE,113,2.0,0.0,7,0.00,,,0.00,0,WeatherHawk,2013-06-17 03:48:00,
2013-06-16 20:52:00,94.1,23.8,29.76,SSE,160,4.0,4.0,8,0.00,,,0.00,0,WeatherHawk,2013-06-17 03:52:00,
2013-06-16 20:54:00,92.8,25.7,29.76,SSE,158,4.0,4.0,9,0.00,,,0.00,0,WeatherHawk,2013-06-17 03:54:00,
2013-06-16 20:55:00,91.8,24.9,29.76,SSE,161,4.0,4.0,9,0.00,,,0.00,0,WeatherHawk,2013-06-17 03:55:00,
2013-06-16 20:57:00,90.9,26.8,29.76,SSE,155,4.0,4.0,10,0.00,,,0.00,0,WeatherHawk,2013-06-17 03:57:00,
2013-06-16 21:00:00,89.8,25.9,29.76,SSE,151,4.0,4.0,10,0.00,,,0.00,0,WeatherHawk,2013-06-17 04:00:00,
2013-06-16 21:01:00,89.6,25.8,29.76,SE,142,3.0,4.0,10,0.00,,,0.00,0,WeatherHawk,2013-06-17 04:01:00,
2013-06-16 21:02:00,89.6,25.8,29.76,SE,140,3.0,4.0,10,0.00,,,0.00,0,WeatherHawk,2013-06-17 04:02:00,
2013-06-16 21:04:00,90.1,26.2,29.76,SE,132,3.0,4.0,10,0.00,,,0.00,0,WeatherHawk,2013-06-17 04:04:00,
2013-06-16 21:05:00,90.3,23.8,29.76,SE,131,3.0,4.0,9,0.00,,,0.00,1,WeatherHawk,2013-06-17 04:05:00,
2013-06-16 21:08:00,91.0,24.4,29.76,ESE,119,3.0,0.0,9,0.00,,,0.00,0,WeatherHawk,2013-06-17 04:08:00,
2013-06-16 21:11:00,92.3,25.3,29.76,ESE,111,2.0,4.0,9,0.00,,,0.00,0,WeatherHawk,2013-06-17 04:11:00,
2013-06-16 21:12:00,92.3,22.5,29.76,East,98,2.0,4.0,8,0.00,,,0.00,0,WeatherHawk,2013-06-17 04:12:00,
2013-06-16 21:14:00,92.3,22.5,29.76,East,96,2.0,4.0,8,0.00,,,0.00,0,WeatherHawk,2013-06-17 04:14:00,
2013-06-16 21:15:00,92.3,19.4,29.76,East,96,2.0,4.0,7,0.00,,,0.00,0,WeatherHawk,2013-06-17 04:15:00,
2013-06-16 21:17:00,92.8,19.7,29.76,East,85,2.0,4.0,7,0.00,,,0.00,0,WeatherHawk,2013-06-17 04:17:00,
2013-06-16 21:20:00,93.4,20.1,29.76,ENE,78,2.0,3.0,7,0.00,,,0.00,0,WeatherHawk,2013-06-17 04:20:00,
2013-06-16 21:22:00,93.6,23.4,29.76,ENE,73,2.0,3.0,8,0.00,,,0.00,0,WeatherHawk,2013-06-17 04:22:00,
2013-06-16 21:26:00,92.8,22.9,29.77,ENE,67,3.0,3.0,8,0.00,,,0.00,0,WeatherHawk,2013-06-17 04:26:00,
2013-06-16 21:27:00,92.7,25.6,29.77,ENE,72,3.0,3.0,9,0.00,,,0.00,0,WeatherHawk,2013-06-17 04:27:00,
2013-06-16 21:28:00,92.3,25.3,29.77,ENE,64,3.0,0.0,9,0.00,,,0.00,0,WeatherHawk,2013-06-17 04:28:00,
2013-06-16 21:29:00,92.1,27.7,29.77,ENE,63,3.0,0.0,10,0.00,,,0.00,0,WeatherHawk,2013-06-17 04:29:00,
2013-06-16 21:32:00,91.2,29.3,29.77,East,85,3.0,3.0,11,0.00,,,0.00,0,WeatherHawk,2013-06-17 04:32:00,
2013-06-16 21:33:00,90.9,31.2,29.77,ESE,119,5.0,5.0,12,0.00,,,0.00,0,WeatherHawk,2013-06-17 04:33:00,
2013-06-16 21:36:00,88.9,35.2,29.77,SSE,157,10.0,10.0,15,0.00,,,0.00,0,WeatherHawk,2013-06-17 04:36:00,
2013-06-16 21:37:00,88.7,36.7,29.78,South,176,10.0,10.0,16,0.00,,,0.00,0,WeatherHawk,2013-06-17 04:37:00,
2013-06-16 21:38:00,88.7,39.7,29.78,South,175,9.0,12.0,18,0.00,,,0.00,1,WeatherHawk,2013-06-17 04:38:00,
2013-06-16 21:39:00,88.9,41.3,29.78,South,183,10.0,12.0,19,0.00,,,0.00,0,WeatherHawk,2013-06-17 04:39:00,
2013-06-16 21:42:00,89.4,43.0,29.78,South,189,7.0,12.0,20,0.00,,,0.00,0,WeatherHawk,2013-06-17 04:42:00,
2013-06-16 21:44:00,89.2,45.4,29.78,SSW,213,8.0,12.0,22,0.00,,,0.00,0,WeatherHawk,2013-06-17 04:44:00,
2013-06-16 21:47:00,90.5,46.4,29.77,South,184,11.0,12.0,22,0.00,,,0.00,0,WeatherHawk,2013-06-17 04:47:00,
2013-06-16 21:48:00,90.9,46.7,29.77,South,186,13.0,0.0,22,0.00,,,0.00,0,WeatherHawk,2013-06-17 04:48:00,
2013-06-16 21:52:00,90.3,48.6,29.78,South,181,10.0,17.0,24,0.00,,,0.00,0,WeatherHawk,2013-06-17 04:52:00,
2013-06-16 21:54:00,90.0,48.3,29.78,South,181,9.0,17.0,24,0.00,,,0.00,0,WeatherHawk,2013-06-17 04:54:00,
2013-06-16 21:56:00,89.6,49.1,29.78,South,179,9.0,17.0,25,0.00,,,0.00,0,WeatherHawk,2013-06-17 04:56:00,
2013-06-16 21:57:00,89.4,48.9,29.78,South,171,8.0,17.0,25,0.00,,,0.00,0,WeatherHawk,2013-06-17 04:57:00,
2013-06-16 21:58:00,89.2,49.8,29.78,South,171,8.0,14.0,26,0.00,,,0.00,0,WeatherHawk,2013-06-17 04:58:00,
2013-06-16 22:00:00,88.9,50.5,29.78,South,171,7.0,14.0,27,0.00,,,0.00,0,WeatherHawk,2013-06-17 05:00:00,
2013-06-16 22:02:00,88.3,51.1,29.78,SSE,164,7.0,14.0,28,0.00,,,0.00,0,WeatherHawk,2013-06-17 05:02:00,
2013-06-16 22:06:00,88.2,52.8,29.78,SSE,161,8.0,14.0,30,0.00,,,0.00,0,WeatherHawk,2013-06-17 05:06:00,
2013-06-16 22:07:00,88.2,52.8,29.78,SSE,163,9.0,14.0,30,0.00,,,0.00,0,WeatherHawk,2013-06-17 05:07:00,
2013-06-16 22:08:00,88.2,52.8,29.78,SSE,165,8.0,9.0,30,0.00,,,0.00,0,WeatherHawk,2013-06-17 05:08:00,
2013-06-16 22:11:00,88.0,52.6,29.78,South,176,8.0,9.0,30,0.00,,,0.00,0,WeatherHawk,2013-06-17 05:11:00,
2013-06-16 22:12:00,88.0,52.6,29.78,South,176,8.0,-999.0,30,0.00,,,0.00,0,WeatherHawk,2013-06-17 05:12:00,
2013-06-16 22:15:00,88.0,52.6,29.78,South,177,8.0,9.0,30,0.00,,,0.00,0,WeatherHawk,2013-06-17 05:15:00,
2013-06-16 22:16:00,88.0,52.6,29.78,South,175,8.0,9.0,30,0.00,,,0.00,0,WeatherHawk,2013-06-17 05:16:00,
2013-06-16 22:17:00,88.0,52.6,29.78,South,177,8.0,9.0,30,0.00,,,0.00,0,WeatherHawk,2013-06-17 05:17:00,
2013-06-16 22:19:00,87.8,52.5,29.78,South,181,8.0,9.0,30,0.00,,,0.00,0,WeatherHawk,2013-06-17 05:19:00,
2013-06-16 22:22:00,88.0,50.8,29.78,South,189,8.0,9.0,28,0.00,,,0.00,0,WeatherHawk,2013-06-17 05:22:00,
2013-06-16 22:25:00,88.0,50.8,29.78,South,184,9.0,9.0,28,0.00,,,0.00,0,WeatherHawk,2013-06-17 05:25:00,
2013-06-16 22:27:00,88.0,49.8,29.78,South,185,8.0,9.0,27,0.00,,,0.00,0,WeatherHawk,2013-06-17 05:27:00,
2013-06-16 22:29:00,88.0,49.8,29.78,South,182,8.0,10.0,27,0.00,,,0.00,0,WeatherHawk,2013-06-17 05:29:00,
2013-06-16 22:30:00,88.2,49.9,29.78,South,174,9.0,10.0,27,0.00,,,0.00,0,WeatherHawk,2013-06-17 05:30:00,
2013-06-16 22:34:00,87.3,49.2,29.78,South,173,8.0,10.0,27,0.00,,,0.00,0,WeatherHawk,2013-06-17 05:34:00,
2013-06-16 22:36:00,87.3,48.2,29.79,South,172,8.0,10.0,26,0.00,,,0.00,0,WeatherHawk,2013-06-17 05:36:00,
2013-06-16 22:37:00,87.1,48.0,29.79,South,177,8.0,10.0,26,0.00,,,0.00,0,WeatherHawk,2013-06-17 05:37:00,
2013-06-16 22:40:00,87.1,48.0,29.79,South,177,7.0,9.0,26,0.00,,,0.00,0,WeatherHawk,2013-06-17 05:40:00,
2013-06-16 22:42:00,86.9,47.8,29.79,South,175,9.0,9.0,26,0.00,,,0.00,0,WeatherHawk,2013-06-17 05:42:00,
2013-06-16 22:43:00,86.9,47.8,29.79,South,179,9.0,9.0,26,0.00,,,0.00,0,WeatherHawk,2013-06-17 05:43:00,
2013-06-16 22:47:00,87.1,48.0,29.78,South,185,7.0,9.0,26,0.00,,,0.00,0,WeatherHawk,2013-06-17 05:47:00,
2013-06-16 22:50:00,86.9,47.8,29.78,South,180,6.0,9.0,26,0.00,,,0.00,0,WeatherHawk,2013-06-17 05:50:00,
2013-06-16 22:52:00,86.9,47.8,29.78,South,180,6.0,-999.0,26,0.00,,,0.00,0,WeatherHawk,2013-06-17 05:52:00,
2013-06-16 22:53:00,86.9,47.8,29.78,South,185,7.0,9.0,26,0.00,,,0.00,0,WeatherHawk,2013-06-17 05:53:00,
2013-06-16 22:57:00,86.9,47.8,29.78,South,175,8.0,9.0,26,0.00,,,0.00,0,WeatherHawk,2013-06-17 05:57:00,
2013-06-16 22:58:00,86.7,47.7,29.78,South,174,8.0,9.0,26,0.00,,,0.00,1,WeatherHawk,2013-06-17 05:58:00,
2013-06-16 23:02:00,86.4,46.4,29.79,South,178,7.0,9.0,25,0.00,,,0.00,0,WeatherHawk,2013-06-17 06:02:00,
2013-06-16 23:03:00,86.4,46.4,29.79,South,185,7.0,9.0,25,0.00,,,0.00,1,WeatherHawk,2013-06-17 06:03:00,
2013-06-16 23:07:00,86.2,49.2,29.80,NW,306,9.0,9.0,28,0.00,,,0.00,0,WeatherHawk,2013-06-17 06:07:00,
2013-06-16 23:10:00,82.9,48.3,29.80,West,276,9.0,13.0,30,0.00,,,0.00,0,WeatherHawk,2013-06-17 06:10:00,
2013-06-16 23:12:00,83.1,45.6,29.80,West,260,12.0,13.0,27,0.00,,,0.00,0,WeatherHawk,2013-06-17 06:12:00,
2013-06-16 23:14:00,85.3,40.9,29.80,WSW,248,7.0,13.0,21,0.00,,,0.00,0,WeatherHawk,2013-06-17 06:14:00,
2013-06-16 23:15:00,86.4,43.0,29.80,WSW,240,9.0,13.0,22,0.00,,,0.00,0,WeatherHawk,2013-06-17 06:15:00,
2013-06-16 23:17:00,87.1,45.9,29.80,WSW,239,7.0,-999.0,24,0.00,,,0.00,0,WeatherHawk,2013-06-17 06:17:00,
2013-06-16 23:20:00,86.4,47.4,29.80,WNW,284,7.0,14.0,26,0.00,,,0.00,0,WeatherHawk,2013-06-17 06:20:00,
2013-06-16 23:22:00,85.6,47.8,29.80,WNW,291,8.0,-999.0,27,0.00,,,0.00,0,WeatherHawk,2013-06-17 06:22:00,
2013-06-16 23:23:00,84.7,49.8,29.80,West,280,6.0,14.0,30,0.00,,,0.00,0,WeatherHawk,2013-06-17 06:23:00,
2013-06-16 23:24:00,84.0,49.2,29.80,WNW,285,4.0,14.0,30,0.00,,,0.00,1,WeatherHawk,2013-06-17 06:24:00,
2013-06-16 23:26:00,83.8,49.9,29.80,West,274,3.0,14.0,31,0.00,,,0.00,1,WeatherHawk,2013-06-17 06:26:00,
2013-06-16 23:28:00,83.8,49.1,29.80,West,266,4.0,10.0,30,0.00,,,0.00,0,WeatherHawk,2013-06-17 06:28:00,
2013-06-16 23:29:00,84.0,49.2,29.80,WSW,237,3.0,10.0,30,0.00,,,0.00,0,WeatherHawk,2013-06-17 06:29:00,
2013-06-16 23:30:00,84.2,49.4,29.80,WSW,244,2.0,10.0,30,0.00,,,0.00,0,WeatherHawk,2013-06-17 06:30:00,
2013-06-16 23:32:00,84.0,50.1,29.80,West,280,3.0,10.0,31,0.00,,,0.00,0,WeatherHawk,2013-06-17 06:32:00,
2013-06-16 23:34:00,83.7,49.8,29.81,WNW,293,4.0,10.0,31,0.00,,,0.00,0,WeatherHawk,2013-06-17 06:34:00,
2013-06-16 23:36:00,83.5,50.5,29.81,West,278,2.0,10.0,32,0.00,,,0.00,0,WeatherHawk,2013-06-17 06:36:00,
2013-06-16 23:37:00,83.5,50.5,29.81,West,278,2.0,10.0,32,0.00,,,0.00,0,WeatherHawk,2013-06-17 06:37:00,
2013-06-16 23:42:00,82.9,50.8,29.81,ESE,122,1.0,7.0,33,0.00,,,0.00,0,WeatherHawk,2013-06-17 06:42:00,
2013-06-16 23:43:00,82.8,49.9,29.81,ESE,122,4.0,7.0,32,0.00,,,0.00,0,WeatherHawk,2013-06-17 06:43:00,
2013-06-16 23:45:00,82.6,50.5,29.81,ESE,123,3.0,7.0,33,0.00,,,0.00,0,WeatherHawk,2013-06-17 06:45:00,
2013-06-16 23:47:00,82.6,50.5,29.80,ESE,123,2.0,7.0,33,0.00,,,0.00,0,WeatherHawk,2013-06-17 06:47:00,
2013-06-16 23:51:00,82.9,50.8,29.80,West,278,2.0,4.0,33,0.00,,,0.00,0,WeatherHawk,2013-06-17 06:51:00,
2013-06-16 23:52:00,82.9,50.8,29.80,West,278,2.0,4.0,33,0.00,,,0.00,0,WeatherHawk,2013-06-17 06:52:00,
2013-06-16 23:56:00,83.3,51.2,29.80,WNW,283,3.0,4.0,33,0.00,,,0.00,0,WeatherHawk,2013-06-17 06:56:00,
2013-06-16 23:57:00,83.3,51.2,29.80,WNW,283,3.0,4.0,33,0.00,,,0.00,0,WeatherHawk,2013-06-17 06:57:00,
2013-06-16 23:58:00,83.7,51.5,29.80,West,271,3.0,4.0,33,0.00,,,0.00,0,WeatherHawk,2013-06-17 06:58:00,